WA6MHA-11 Weather Reports


Display with metric or nautical units.
time (UTC)temp
F
wind
direction
speed
MPH
gust
MPH
rain 1hr
in
rain 24hr
in
rain mn
in
humidity
%
barometer
mb
20181211225751 68 182 2.0 3.0 0.00 0.00 0.01 35 1017.4
20181211225741 68 182 2.0 3.0 0.00 0.00 0.01 35 1017.4
20181211225511 68 186 7.0 7.0 0.00 0.00 0.01 35 1017.4
20181211225344 68 186 7.0 7.0 0.00 0.00 0.01 35 1017.4
20181211225112 69 132 1.0 7.0 0.00 0.00 0.01 35 1017.4
20181211224943 69 132 1.0 7.0 0.00 0.00 0.01 35 1017.4
20181211224941 69 132 1.0 7.0 0.00 0.00 0.01 35 1017.4
20181211224938 69 132 1.0 7.0 0.00 0.00 0.01 35 1017.4
20181211224719 69 175 7.0 9.0 0.00 0.00 0.01 38 1017.5
20181211224537 69 175 7.0 9.0 0.00 0.00 0.01 38 1017.5
20181211224343 69 145 3.0 6.0 0.00 0.00 0.00 39 1017.6
20181211224149 69 173 4.0 6.0 0.00 0.00 0.00 39 1017.6
20181211224138 69 145 3.0 6.0 0.00 0.00 0.00 39 1017.6
20181211224135 69 145 3.0 6.0 0.00 0.00 0.00 39 1017.6
20181211223934 69 173 4.0 6.0 0.00 0.00 0.00 39 1017.6
20181211223734 69 173 4.0 6.0 0.00 0.00 0.00 39 1017.6
20181211223519 69 162 3.0 7.0 0.00 0.00 0.00 39 1017.6
20181211223435 69 162 3.0 7.0 0.00 0.00 0.00 39 1017.6
20181211223338 69 162 3.0 7.0 0.00 0.00 0.00 39 1017.6
20181211223333 69 162 3.0 7.0 0.00 0.00 0.00 39 1017.6
20181211223145 69 191 2.0 5.0 0.00 0.00 0.00 39 1017.6
20181211223053 69 191 2.0 5.0 0.00 0.00 0.00 39 1017.6
20181211222935 69 191 2.0 5.0 0.00 0.00 0.00 39 1017.6
20181211222933 69 191 2.0 5.0 0.00 0.00 0.00 39 1017.6
20181211222644 69 180 4.0 8.0 0.00 0.00 0.00 39 1017.6
20181211222536 69 180 4.0 8.0 0.00 0.00 0.00 39 1017.6
20181211222530 69 180 4.0 8.0 0.00 0.00 0.00 39 1017.6
20181211222248 70 212 3.0 7.0 0.00 0.00 0.00 39 1017.7
20181211222131 70 212 3.0 7.0 0.00 0.00 0.00 39 1017.7
20181211222129 70 212 3.0 7.0 0.00 0.00 0.00 39 1017.7
20181211221948 70 180 5.0 6.0 0.00 0.00 0.00 39 1017.6
20181211221730 70 180 5.0 6.0 0.00 0.00 0.00 39 1017.6
20181211221728 70 180 5.0 6.0 0.00 0.00 0.00 39 1017.6
20181211221555 70 218 1.0 6.0 0.00 0.00 0.00 39 1017.6
20181211221329 70 218 1.0 6.0 0.00 0.00 0.00 39 1017.6
20181211221326 70 218 1.0 6.0 0.00 0.00 0.00 39 1017.6
20181211221223 70 90 4.0 4.0 0.00 0.00 0.03 39 1017.5
20181211221151 70 90 4.0 4.0 0.00 0.00 0.03 39 1017.5
20181211220928 70 90 4.0 4.0 0.00 0.00 0.03 39 1017.5
20181211220925 70 90 4.0 4.0 0.00 0.00 0.03 39 1017.5
20181211220728 70 81 2.0 4.0 0.00 0.00 0.03 39 1017.6
20181211220528 70 81 2.0 4.0 0.00 0.00 0.03 39 1017.6
20181211220336 70 63 4.0 4.0 0.00 0.00 0.03 39 1017.6
20181211220127 70 63 4.0 4.0 0.00 0.00 0.03 39 1017.6
20181211220122 70 63 4.0 4.0 0.00 0.00 0.03 39 1017.6
20181211215837 70 99 2.0 4.0 0.00 0.00 0.03 39 1017.7
20181211215723 70 99 2.0 4.0 0.00 0.00 0.03 39 1017.7
20181211215721 70 99 2.0 4.0 0.00 0.00 0.03 39 1017.7
20181211215116 70 180 5.0 5.0 0.00 0.00 0.03 39 1017.6
20181211214918 70 180 5.0 5.0 0.00 0.00 0.03 39 1017.6
20181211214726 71 185 0.0 7.0 0.00 0.00 0.03 39 1017.6
20181211214610 71 185 0.0 7.0 0.00 0.00 0.03 39 1017.6
20181211214522 71 185 0.0 7.0 0.00 0.00 0.03 39 1017.6
20181211214520 71 185 0.0 7.0 0.00 0.00 0.03 39 1017.6
20181211214517 71 185 0.0 7.0 0.00 0.00 0.03 39 1017.6
20181211214329 71 182 4.0 8.0 0.00 0.00 0.03 39 1017.6
20181211214126 71 182 4.0 8.0 0.00 0.00 0.03 39 1017.6
20181211214116 71 182 4.0 8.0 0.00 0.00 0.03 39 1017.6
20181211213508 71 148 0.0 2.0 0.00 0.00 0.03 38 1017.6
20181211213315 71 148 0.0 2.0 0.00 0.00 0.03 38 1017.6
20181211213313 71 148 0.0 2.0 0.00 0.00 0.03 38 1017.6
20181211213116 71 92 1.0 4.0 0.00 0.00 0.03 38 1017.6
20181211212915 71 92 1.0 4.0 0.00 0.00 0.03 38 1017.6
20181211212912 71 92 1.0 4.0 0.00 0.00 0.03 38 1017.6
20181211212644 71 274 2.0 4.0 0.00 0.00 0.03 39 1017.7
20181211212542 71 238 4.0 6.0 0.00 0.00 0.03 38 1017.7
20181211212514 71 274 2.0 4.0 0.00 0.00 0.03 39 1017.7
20181211212511 71 274 2.0 4.0 0.00 0.00 0.03 39 1017.7
20181211212326 71 238 4.0 6.0 0.00 0.00 0.03 38 1017.7
20181211212116 71 238 4.0 6.0 0.00 0.00 0.03 38 1017.7
20181211212112 71 238 4.0 6.0 0.00 0.00 0.03 38 1017.7
20181211212109 71 238 4.0 6.0 0.00 0.00 0.03 38 1017.7
20181211211931 71 258 4.0 4.0 0.00 0.00 0.03 39 1017.6
20181211211847 71 258 4.0 4.0 0.00 0.00 0.03 39 1017.6
20181211211708 71 258 4.0 4.0 0.00 0.00 0.03 39 1017.6
20181211211547 71 193 1.0 6.0 0.00 0.00 0.03 39 1017.8
20181211211351 71 193 1.0 6.0 0.00 0.00 0.03 39 1017.8
20181211211310 71 193 1.0 6.0 0.00 0.00 0.03 39 1017.8
20181211211308 71 193 1.0 6.0 0.00 0.00 0.03 39 1017.8
20181211211306 71 193 1.0 6.0 0.00 0.00 0.03 39 1017.8
20181211211128 71 175 2.0 7.0 0.00 0.00 0.03 38 1017.8
20181211210910 71 175 2.0 7.0 0.00 0.00 0.03 38 1017.8
20181211210905 71 175 2.0 7.0 0.00 0.00 0.03 38 1017.8
20181211210712 71 177 1.0 5.0 0.00 0.00 0.03 38 1017.8
20181211210507 71 177 1.0 5.0 0.00 0.00 0.03 38 1017.8
20181211210504 71 177 1.0 5.0 0.00 0.00 0.03 38 1017.8
20181211210336 71 213 3.0 7.0 0.00 0.00 0.03 38 1017.8
20181211210103 71 213 3.0 7.0 0.00 0.00 0.03 38 1017.8
20181211205954 71 182 4.0 6.0 0.00 0.00 0.03 38 1017.9
20181211205704 71 182 4.0 6.0 0.00 0.00 0.03 38 1017.9
20181211205701 71 182 4.0 6.0 0.00 0.00 0.03 38 1017.9
20181211205612 71 216 5.0 6.0 0.00 0.00 0.03 37 1017.9
20181211205530 71 216 5.0 6.0 0.00 0.00 0.03 37 1017.9
20181211205349 71 216 5.0 6.0 0.00 0.00 0.03 37 1017.9
20181211205302 71 216 5.0 6.0 0.00 0.00 0.03 37 1017.9
20181211205300 71 216 5.0 6.0 0.00 0.00 0.03 37 1017.9
20181211205105 71 177 4.0 6.0 0.00 0.00 0.03 37 1017.9
20181211204901 71 177 4.0 6.0 0.00 0.00 0.03 37 1017.9
20181211204858 71 177 4.0 6.0 0.00 0.00 0.03 37 1017.9
20181211204733 71 123 1.0 6.0 0.00 0.00 0.03 37 1017.9
20181211204608 71 123 1.0 6.0 0.00 0.00 0.03 37 1017.9
20181211204503 71 123 1.0 6.0 0.00 0.00 0.03 37 1017.9
20181211204500 71 123 1.0 6.0 0.00 0.00 0.03 37 1017.9
20181211204457 71 123 1.0 6.0 0.00 0.00 0.03 37 1017.9
20181211204327 71 123 6.0 6.0 0.00 0.00 0.03 37 1017.9
20181211204058 71 123 6.0 6.0 0.00 0.00 0.03 37 1017.9
20181211204056 71 123 6.0 6.0 0.00 0.00 0.03 37 1017.9
20181211203655 70 182 3.0 7.0 0.00 0.00 0.03 37 1017.9
20181211203606 71 117 3.0 4.0 0.00 0.00 0.03 38 1018.0
20181211203434 71 117 3.0 4.0 0.00 0.00 0.03 38 1018.0
20181211203257 71 117 3.0 4.0 0.00 0.00 0.03 38 1018.0
20181211203254 71 117 3.0 4.0 0.00 0.00 0.03 38 1018.0
20181211203106 71 137 0.0 1.0 0.00 0.00 0.03 39 1018.1
20181211202952 71 137 0.0 1.0 0.00 0.00 0.03 39 1018.1
20181211202858 71 137 0.0 1.0 0.00 0.00 0.03 39 1018.1
20181211202852 71 137 0.0 1.0 0.00 0.00 0.03 39 1018.1
20181211202616 70 263 1.0 4.0 0.00 0.00 0.03 39 1018.1
20181211202453 70 263 1.0 4.0 0.00 0.00 0.03 39 1018.1
20181211202450 70 263 1.0 4.0 0.00 0.00 0.03 39 1018.1
20181211202307 70 180 3.0 4.0 0.00 0.00 0.03 40 1018.2
20181211202215 70 180 3.0 4.0 0.00 0.00 0.03 40 1018.2
20181211202051 70 180 3.0 4.0 0.00 0.00 0.03 40 1018.2
20181211202049 70 180 3.0 4.0 0.00 0.00 0.03 40 1018.2
20181211201920 70 114 0.0 5.0 0.00 0.00 0.03 40 1018.3
20181211201648 70 114 0.0 5.0 0.00 0.00 0.03 40 1018.3
20181211201457 69 139 0.0 3.0 0.00 0.00 0.03 40 1018.3
20181211201352 69 139 0.0 3.0 0.00 0.00 0.03 40 1018.3
20181211201253 69 139 0.0 3.0 0.00 0.00 0.03 40 1018.3
20181211201250 69 139 0.0 3.0 0.00 0.00 0.03 40 1018.3
20181211201247 69 139 0.0 3.0 0.00 0.00 0.03 40 1018.3
20181211201101 69 315 1.0 4.0 0.00 0.00 0.03 42 1018.4
20181211200952 69 315 1.0 4.0 0.00 0.00 0.03 42 1018.4
20181211200848 69 315 1.0 4.0 0.00 0.00 0.03 42 1018.4
20181211200846 69 315 1.0 4.0 0.00 0.00 0.03 42 1018.4
20181211200609 69 261 3.0 8.0 0.00 0.00 0.03 42 1018.4
20181211200447 69 261 3.0 8.0 0.00 0.00 0.03 42 1018.4
20181211200242 69 0 0.0 5.0 0.00 0.00 0.03 43 1018.4
20181211200211 69 0 0.0 5.0 0.00 0.00 0.03 43 1018.4
20181211200046 69 0 0.0 5.0 0.00 0.00 0.03 43 1018.4
20181211200042 69 0 0.0 5.0 0.00 0.00 0.03 43 1018.4
20181211195853 69 105 1.0 4.0 0.00 0.00 0.03 44 1018.5
20181211195815 69 105 1.0 4.0 0.00 0.00 0.03 44 1018.5
20181211195641 69 105 1.0 4.0 0.00 0.00 0.03 44 1018.5
20181211195440 69 270 1.0 3.0 0.00 0.00 0.03 45 1018.6
20181211195331 69 270 1.0 3.0 0.00 0.00 0.03 45 1018.6
20181211195243 69 270 1.0 3.0 0.00 0.00 0.03 45 1018.6
20181211195240 69 270 1.0 3.0 0.00 0.00 0.03 45 1018.6
20181211195031 69 261 1.0 6.0 0.00 0.00 0.03 46 1018.7
20181211194921 69 261 1.0 6.0 0.00 0.00 0.03 46 1018.7
20181211194843 69 261 1.0 6.0 0.00 0.00 0.03 46 1018.7
20181211194839 69 261 1.0 6.0 0.00 0.00 0.03 46 1018.7
20181211194659 68 202 5.0 7.0 0.00 0.00 0.03 49 1018.7
20181211194608 68 202 5.0 7.0 0.00 0.00 0.03 49 1018.7
20181211194514 68 202 5.0 7.0 0.00 0.00 0.03 49 1018.7
20181211194440 68 202 5.0 7.0 0.00 0.00 0.03 49 1018.7
20181211194438 68 202 5.0 7.0 0.00 0.00 0.03 49 1018.7
20181211193842 68 212 4.0 5.0 0.00 0.00 0.03 50 1018.8
20181211193805 68 212 4.0 5.0 0.00 0.00 0.03 50 1018.8
20181211193639 68 212 4.0 5.0 0.00 0.00 0.03 50 1018.8
20181211193634 68 212 4.0 5.0 0.00 0.00 0.03 50 1018.8
20181211193233 68 180 3.0 8.0 0.00 0.00 0.03 51 1018.9
20181211193104 68 180 6.0 8.0 0.00 0.00 0.03 51 1019.0
20181211192835 68 180 6.0 8.0 0.00 0.00 0.03 51 1019.0
20181211192832 68 180 6.0 8.0 0.00 0.00 0.03 51 1019.0
20181211192543 67 182 4.0 6.0 0.00 0.00 0.03 51 1019.0
20181211192434 67 182 4.0 6.0 0.00 0.00 0.03 51 1019.0
20181211192431 67 182 4.0 6.0 0.00 0.00 0.03 51 1019.0
20181211192237 67 166 5.0 6.0 0.00 0.00 0.03 52 1019.1
20181211192132 67 166 5.0 6.0 0.00 0.00 0.03 52 1019.1
20181211192033 67 166 5.0 6.0 0.00 0.00 0.03 52 1019.1
20181211192030 67 166 5.0 6.0 0.00 0.00 0.03 52 1019.1
20181211191828 67 220 0.0 7.0 0.00 0.00 0.03 52 1019.2
20181211191633 67 220 0.0 7.0 0.00 0.00 0.03 52 1019.2
20181211191628 67 220 0.0 7.0 0.00 0.00 0.03 52 1019.2
20181211191409 67 184 7.0 7.0 0.00 0.00 0.03 53 1019.1
20181211191231 67 184 7.0 7.0 0.00 0.00 0.03 53 1019.1
20181211191229 67 184 7.0 7.0 0.00 0.00 0.03 53 1019.1
20181211191227 67 184 7.0 7.0 0.00 0.00 0.03 53 1019.1
20181211190959 67 175 2.0 3.0 0.00 0.00 0.03 53 1019.2
20181211190828 67 175 2.0 3.0 0.00 0.00 0.03 53 1019.2
20181211190825 67 175 2.0 3.0 0.00 0.00 0.03 53 1019.2
20181211190424 67 238 1.0 4.0 0.00 0.00 0.03 53 1019.3
20181211190241 67 236 3.0 5.0 0.00 0.00 0.03 54 1019.3
20181211190137 67 236 3.0 5.0 0.00 0.00 0.03 54 1019.3
20181211190031 67 236 3.0 5.0 0.00 0.00 0.03 54 1019.3
20181211190023 67 236 3.0 5.0 0.00 0.00 0.03 54 1019.3
20181211185832 67 270 2.0 5.0 0.00 0.00 0.03 54 1019.3
20181211185742 67 270 2.0 5.0 0.00 0.00 0.03 54 1019.3
20181211185629 67 270 2.0 5.0 0.00 0.00 0.03 54 1019.3
20181211185622 67 270 2.0 5.0 0.00 0.00 0.03 54 1019.3
20181211185502 67 189 2.0 6.0 0.00 0.00 0.03 55 1019.3
20181211185307 67 189 2.0 6.0 0.00 0.00 0.03 55 1019.3
20181211185223 67 189 2.0 6.0 0.00 0.00 0.03 55 1019.3
20181211185220 67 189 2.0 6.0 0.00 0.00 0.03 55 1019.3
20181211185105 66 180 2.0 3.0 0.00 0.00 0.03 55 1019.3
20181211184936 66 180 2.0 3.0 0.00 0.00 0.03 55 1019.3
20181211184827 66 180 2.0 3.0 0.00 0.00 0.03 55 1019.3
20181211184825 66 180 2.0 3.0 0.00 0.00 0.03 55 1019.3
20181211184819 66 180 2.0 3.0 0.00 0.00 0.03 55 1019.3
20181211184745 66 204 3.0 3.0 0.00 0.00 0.03 55 1019.4
20181211184600 66 204 3.0 3.0 0.00 0.00 0.03 55 1019.4
20181211184424 66 204 3.0 3.0 0.00 0.00 0.03 55 1019.4
20181211184420 66 204 3.0 3.0 0.00 0.00 0.03 55 1019.4
20181211184418 66 204 3.0 3.0 0.00 0.00 0.03 55 1019.4
20181211184159 65 245 1.0 3.0 0.00 0.00 0.03 56 1019.5
20181211184118 65 245 1.0 3.0 0.00 0.00 0.03 56 1019.5
20181211184016 65 245 1.0 3.0 0.00 0.00 0.03 56 1019.5
20181211183834 65 270 4.0 4.0 0.00 0.00 0.03 56 1019.4
20181211183620 65 270 4.0 4.0 0.00 0.00 0.03 56 1019.4
20181211183618 65 270 4.0 4.0 0.00 0.00 0.03 56 1019.4
20181211183615 65 270 4.0 4.0 0.00 0.00 0.03 56 1019.4
20181211183525 65 198 0.0 4.0 0.00 0.00 0.03 56 1019.5
20181211183410 65 198 0.0 4.0 0.00 0.00 0.03 56 1019.5
20181211183217 65 198 0.0 4.0 0.00 0.00 0.03 56 1019.5
20181211183214 65 198 0.0 4.0 0.00 0.00 0.03 56 1019.5
20181211182816 64 180 1.0 3.0 0.00 0.00 0.03 57 1019.4
20181211182414 64 180 1.0 3.0 0.00 0.00 0.03 57 1019.4
20181211182411 64 180 1.0 3.0 0.00 0.00 0.03 57 1019.4
20181211182206 63 180 2.0 3.0 0.00 0.00 0.03 57 1019.4
20181211182015 63 180 2.0 3.0 0.00 0.00 0.03 57 1019.4
20181211182012 63 180 2.0 3.0 0.00 0.00 0.03 57 1019.4
20181211182010 63 180 2.0 3.0 0.00 0.00 0.03 57 1019.4
20181211181903 63 225 3.0 3.0 0.00 0.00 0.03 58 1019.4
20181211181611 63 225 3.0 3.0 0.00 0.00 0.03 58 1019.4
20181211181609 63 225 3.0 3.0 0.00 0.00 0.03 58 1019.4
20181211181207 62 312 1.0 1.0 0.00 0.00 0.03 58 1019.4
20181211181000 61 324 1.0 1.0 0.00 0.00 0.03 59 1019.4
20181211180806 62 157 0.0 3.0 0.00 0.00 0.03 58 1019.4
20181211180656 61 324 1.0 1.0 0.00 0.00 0.03 59 1019.4
20181211180409 61 324 1.0 1.0 0.00 0.00 0.03 59 1019.4
20181211180405 61 324 1.0 1.0 0.00 0.00 0.03 59 1019.4
20181211180242 61 353 0.0 2.0 0.00 0.00 0.03 59 1019.5
20181211180051 61 353 0.0 2.0 0.00 0.00 0.03 59 1019.5
20181211180003 61 353 0.0 2.0 0.00 0.00 0.03 59 1019.5
20181211175907 60 234 1.0 3.0 0.00 0.00 0.03 59 1019.4
20181211175718 60 234 1.0 3.0 0.00 0.00 0.03 59 1019.4
20181211175604 60 234 1.0 3.0 0.00 0.00 0.03 59 1019.4
20181211175602 60 234 1.0 3.0 0.00 0.00 0.03 59 1019.4
20181211175506 60 267 2.0 3.0 0.00 0.00 0.03 60 1019.5
20181211175423 60 267 2.0 3.0 0.00 0.00 0.03 60 1019.5
20181211175319 60 267 2.0 3.0 0.00 0.00 0.03 60 1019.5
20181211175205 60 267 2.0 3.0 0.00 0.00 0.03 60 1019.5
20181211175203 60 267 2.0 3.0 0.00 0.00 0.03 60 1019.5
20181211175201 60 267 2.0 3.0 0.00 0.00 0.03 60 1019.5
20181211175105 59 238 3.0 3.0 0.00 0.00 0.03 60 1019.5
20181211175030 59 238 3.0 3.0 0.00 0.00 0.03 60 1019.5
20181211174839 58 292 1.0 2.0 0.00 0.00 0.03 60 1019.5
20181211174803 59 238 3.0 3.0 0.00 0.00 0.03 60 1019.5
20181211174801 59 238 3.0 3.0 0.00 0.00 0.03 60 1019.5
20181211174759 59 238 3.0 3.0 0.00 0.00 0.03 60 1019.5
20181211174539 58 292 1.0 2.0 0.00 0.00 0.03 60 1019.5
20181211174502 58 292 1.0 2.0 0.00 0.00 0.03 60 1019.5
20181211174358 58 292 1.0 2.0 0.00 0.00 0.03 60 1019.5
20181211174340 58 263 1.0 1.0 0.00 0.00 0.03 61 1019.5
20181211174121 58 263 1.0 1.0 0.00 0.00 0.03 61 1019.5
20181211174000 58 263 1.0 1.0 0.00 0.00 0.03 61 1019.5
20181211173957 58 263 1.0 1.0 0.00 0.00 0.03 61 1019.5
20181211173748 58 225 1.0 3.0 0.00 0.00 0.03 61 1019.5
20181211173716 58 225 1.0 3.0 0.00 0.00 0.03 61 1019.5
20181211173629 58 294 2.0 3.0 0.00 0.00 0.03 61 1019.4
20181211173601 58 225 1.0 3.0 0.00 0.00 0.03 61 1019.5
20181211173555 58 225 1.0 3.0 0.00 0.00 0.03 61 1019.5
20181211173429 58 294 2.0 3.0 0.00 0.00 0.03 61 1019.4
20181211173158 58 294 2.0 3.0 0.00 0.00 0.03 61 1019.4
20181211173156 58 294 2.0 3.0 0.00 0.00 0.03 61 1019.4
20181211173154 58 294 2.0 3.0 0.00 0.00 0.03 61 1019.4
20181211173129 57 276 1.0 3.0 0.00 0.00 0.03 61 1019.5
20181211172908 57 276 1.0 3.0 0.00 0.00 0.03 61 1019.5
20181211172756 57 276 1.0 3.0 0.00 0.00 0.03 61 1019.5
20181211172753 57 276 1.0 3.0 0.00 0.00 0.03 61 1019.5
20181211172351 56 252 2.0 4.0 0.00 0.00 0.03 62 1019.5
20181211172231 56 290 1.0 4.0 0.00 0.00 0.03 62 1019.5
20181211172155 56 290 1.0 4.0 0.00 0.00 0.03 62 1019.5
20181211171953 56 290 1.0 4.0 0.00 0.00 0.03 62 1019.5
20181211171950 56 290 1.0 4.0 0.00 0.00 0.03 62 1019.5
20181211171447 55 231 1.0 3.0 0.00 0.00 0.03 62 1019.5
20181211171304 55 231 1.0 3.0 0.00 0.00 0.03 62 1019.5
20181211171155 55 231 1.0 3.0 0.00 0.00 0.03 62 1019.5
20181211171147 55 231 1.0 3.0 0.00 0.00 0.03 62 1019.5
20181211170951 54 281 1.0 3.0 0.00 0.00 0.03 63 1019.6
20181211170749 54 281 1.0 3.0 0.00 0.00 0.03 63 1019.6
20181211170746 54 281 1.0 3.0 0.00 0.00 0.03 63 1019.6
20181211170646 54 240 3.0 3.0 0.00 0.00 0.03 63 1019.4
20181211170530 54 240 3.0 3.0 0.00 0.00 0.03 63 1019.4
20181211170345 54 240 3.0 3.0 0.00 0.00 0.03 63 1019.4
20181211170200 53 45 0.0 2.0 0.00 0.00 0.03 63 1019.5
20181211170113 53 45 0.0 2.0 0.00 0.00 0.03 63 1019.5
20181211165944 53 45 0.0 2.0 0.00 0.00 0.03 63 1019.5
20181211165907 53 250 1.0 1.0 0.00 0.00 0.03 64 1019.4
20181211165811 53 250 1.0 1.0 0.00 0.00 0.03 64 1019.4
20181211165719 53 250 1.0 1.0 0.00 0.00 0.03 64 1019.4
20181211165639 53 250 1.0 1.0 0.00 0.00 0.03 64 1019.4
20181211165545 53 250 1.0 1.0 0.00 0.00 0.03 64 1019.4
20181211165542 53 250 1.0 1.0 0.00 0.00 0.03 64 1019.4
20181211165453 53 270 1.0 1.0 0.00 0.00 0.03 64 1019.6
20181211165328 53 270 1.0 1.0 0.00 0.00 0.03 64 1019.6
20181211165218 53 270 1.0 1.0 0.00 0.00 0.03 64 1019.6
20181211165141 53 270 1.0 1.0 0.00 0.00 0.03 64 1019.6
20181211164920 52 225 0.0 0.0 0.00 0.00 0.03 64 1019.5
20181211164746 52 225 0.0 0.0 0.00 0.00 0.03 64 1019.5
20181211164739 52 225 0.0 0.0 0.00 0.00 0.03 64 1019.5
20181211164526 51 274 1.0 2.0 0.00 0.00 0.03 64 1019.4
20181211164340 51 274 1.0 2.0 0.00 0.00 0.03 64 1019.4
20181211164338 51 274 1.0 2.0 0.00 0.00 0.03 64 1019.4
20181211164114 51 315 0.0 0.0 0.00 0.00 0.03 64 1019.4
20181211163940 51 315 0.0 0.0 0.00 0.00 0.03 64 1019.4
20181211163937 51 315 0.0 0.0 0.00 0.00 0.03 64 1019.4
20181211163732 50 270 1.0 2.0 0.00 0.00 0.03 64 1019.3
20181211163538 50 270 1.0 2.0 0.00 0.00 0.03 64 1019.3
20181211163536 50 270 1.0 2.0 0.00 0.00 0.03 64 1019.3
20181211163307 49 274 1.0 3.0 0.00 0.00 0.03 64 1019.2
20181211163228 49 274 1.0 3.0 0.00 0.00 0.03 64 1019.2
20181211163141 49 274 1.0 3.0 0.00 0.00 0.03 64 1019.2
20181211163134 49 274 1.0 3.0 0.00 0.00 0.03 64 1019.2
20181211162733 49 283 1.0 2.0 0.00 0.00 0.03 64 1019.3
20181211162510 49 339 0.0 1.0 0.00 0.00 0.03 64 1019.3
20181211162337 49 339 0.0 1.0 0.00 0.00 0.03 64 1019.3
20181211162331 49 339 0.0 1.0 0.00 0.00 0.03 64 1019.3
20181211162145 48 0 0.0 0.0 0.00 0.00 0.03 64 1019.2
20181211161930 48 0 0.0 0.0 0.00 0.00 0.03 64 1019.2
20181211161739 48 315 0.0 0.0 0.00 0.00 0.03 64 1019.1
20181211161532 48 315 0.0 0.0 0.00 0.00 0.03 64 1019.1
20181211161529 48 315 0.0 0.0 0.00 0.00 0.03 64 1019.1
20181211161332 47 270 0.0 0.0 0.00 0.00 0.03 64 1019.1
20181211161244 47 270 0.0 0.0 0.00 0.00 0.03 64 1019.1
20181211161128 47 270 0.0 0.0 0.00 0.00 0.03 64 1019.1
20181211160953 47 270 0.0 0.0 0.00 0.00 0.03 64 1019.1
20181211160908 47 270 0.0 0.0 0.00 0.00 0.03 64 1019.1
20181211160837 47 270 0.0 0.0 0.00 0.00 0.03 64 1019.1
20181211160736 47 270 0.0 0.0 0.00 0.00 0.03 64 1019.1
20181211160727 47 270 0.0 0.0 0.00 0.00 0.03 64 1019.1
20181211160456 46 270 0.0 0.0 0.00 0.00 0.03 64 1018.8
20181211160329 46 270 0.0 0.0 0.00 0.00 0.03 64 1018.8
20181211160325 46 270 0.0 0.0 0.00 0.00 0.03 64 1018.8
20181211160207 45 270 0.0 0.0 0.00 0.00 0.03 64 1018.9
20181211160130 45 270 0.0 0.0 0.00 0.00 0.03 64 1018.9
20181211155929 45 270 0.0 0.0 0.00 0.00 0.03 64 1018.9
20181211155926 45 270 0.0 0.0 0.00 0.00 0.03 64 1018.9
20181211155923 45 270 0.0 0.0 0.00 0.00 0.03 64 1018.9
20181211155640 44 270 0.0 0.0 0.00 0.00 0.03 64 1019.0
20181211155526 44 270 0.0 0.0 0.00 0.00 0.03 64 1019.0
20181211155522 44 270 0.0 0.0 0.00 0.00 0.03 64 1019.0
20181211155427 44 346 0.0 0.0 0.00 0.00 0.03 64 1019.0
20181211155242 44 346 0.0 0.0 0.00 0.00 0.03 64 1019.0
20181211155121 44 346 0.0 0.0 0.00 0.00 0.03 64 1019.0
20181211154937 44 315 0.0 0.0 0.00 0.00 0.03 64 1018.8
20181211154823 44 315 0.0 0.0 0.00 0.00 0.03 64 1018.8
20181211154724 44 315 0.0 0.0 0.00 0.00 0.03 64 1018.8
20181211154720 44 315 0.0 0.0 0.00 0.00 0.03 64 1018.8
20181211154453 43 45 0.0 0.0 0.00 0.00 0.03 65 1018.8
20181211154321 43 45 0.0 0.0 0.00 0.00 0.03 65 1018.8
20181211154319 43 45 0.0 0.0 0.00 0.00 0.03 65 1018.8
20181211154129 43 45 0.0 0.0 0.00 0.00 0.03 65 1018.8
20181211154043 43 45 0.0 0.0 0.00 0.00 0.03 65 1018.8
20181211153917 43 45 0.0 0.0 0.00 0.00 0.03 65 1018.8
20181211153658 43 270 0.0 0.0 0.00 0.00 0.03 65 1018.8
20181211153519 43 270 0.0 0.0 0.00 0.00 0.03 65 1018.8
20181211153515 43 270 0.0 0.0 0.00 0.00 0.03 65 1018.8
20181211153344 42 0 0.0 0.0 0.00 0.00 0.03 65 1018.8
20181211153119 42 285 0.0 0.0 0.00 0.00 0.03 65 1018.8
20181211153114 42 0 0.0 0.0 0.00 0.00 0.03 65 1018.8
20181211152836 42 285 0.0 0.0 0.00 0.00 0.03 65 1018.8
20181211152715 42 285 0.0 0.0 0.00 0.00 0.03 65 1018.8
20181211152713 42 285 0.0 0.0 0.00 0.00 0.03 65 1018.8
20181211152455 41 270 0.0 0.0 0.00 0.00 0.03 65 1018.8
20181211152347 41 270 0.0 0.0 0.00 0.00 0.03 65 1018.8
20181211152312 41 270 0.0 0.0 0.00 0.00 0.03 65 1018.8
20181211152117 41 270 0.0 0.0 0.00 0.00 0.03 65 1018.7
20181211151914 41 270 0.0 0.0 0.00 0.00 0.03 65 1018.7
20181211151911 41 270 0.0 0.0 0.00 0.00 0.03 65 1018.7
20181211151710 40 270 0.0 1.0 0.00 0.00 0.03 65 1018.8
20181211151512 40 270 0.0 1.0 0.00 0.00 0.03 65 1018.8
20181211151509 40 270 0.0 1.0 0.00 0.00 0.03 65 1018.8
20181211151405 40 270 1.0 1.0 0.00 0.00 0.03 64 1018.8
20181211151308 40 270 1.0 1.0 0.00 0.00 0.03 64 1018.8
20181211151113 40 270 1.0 1.0 0.00 0.00 0.03 64 1018.8
20181211151111 40 270 1.0 1.0 0.00 0.00 0.03 64 1018.8
20181211151109 40 270 1.0 1.0 0.00 0.00 0.03 64 1018.8
20181211151107 40 270 1.0 1.0 0.00 0.00 0.03 64 1018.8
20181211151040 40 137 0.0 0.0 0.00 0.00 0.03 65 1018.8
20181211150949 40 137 0.0 0.0 0.00 0.00 0.03 65 1018.8
20181211150706 40 137 0.0 0.0 0.00 0.00 0.03 65 1018.8
20181211150520 40 315 0.0 0.0 0.00 0.00 0.03 65 1018.8
20181211150442 40 315 0.0 0.0 0.00 0.00 0.03 65 1018.8
20181211150305 40 315 0.0 0.0 0.00 0.00 0.03 65 1018.8
20181211150152 40 315 0.0 0.0 0.00 0.00 0.03 65 1018.7
20181211150003 40 315 0.0 0.0 0.00 0.00 0.03 65 1018.7
20181211145906 40 315 0.0 0.0 0.00 0.00 0.03 65 1018.7
20181211145904 40 315 0.0 0.0 0.00 0.00 0.03 65 1018.7
20181211145716 40 243 0.0 0.0 0.00 0.00 0.03 65 1018.8
20181211145510 40 243 0.0 0.0 0.00 0.00 0.03 65 1018.8
20181211145503 40 243 0.0 0.0 0.00 0.00 0.03 65 1018.8
20181211144955 40 274 0.0 2.0 0.00 0.00 0.03 64 1018.7
20181211144913 40 274 0.0 2.0 0.00 0.00 0.03 64 1018.7
20181211144703 40 274 0.0 2.0 0.00 0.00 0.03 64 1018.7
20181211144700 40 274 0.0 2.0 0.00 0.00 0.03 64 1018.7
20181211144514 40 274 0.0 0.0 0.00 0.00 0.03 65 1018.6
20181211144258 40 274 0.0 0.0 0.00 0.00 0.03 65 1018.6
20181211144032 40 322 0.0 1.0 0.00 0.00 0.03 65 1018.6
20181211143902 40 322 0.0 1.0 0.00 0.00 0.03 65 1018.6
20181211143857 40 322 0.0 1.0 0.00 0.00 0.03 65 1018.6
20181211143723 40 315 0.0 1.0 0.00 0.00 0.03 65 1018.7
20181211143613 40 315 0.0 1.0 0.00 0.00 0.03 65 1018.7
20181211143503 40 315 0.0 1.0 0.00 0.00 0.03 65 1018.7
20181211143456 40 315 0.0 1.0 0.00 0.00 0.03 65 1018.7
20181211143452 40 245 1.0 1.0 0.00 0.00 0.03 65 1018.7
20181211143234 40 245 1.0 1.0 0.00 0.00 0.03 65 1018.7
20181211143131 40 245 1.0 1.0 0.00 0.00 0.03 65 1018.7
20181211143059 40 245 1.0 1.0 0.00 0.00 0.03 65 1018.7
20181211143057 40 245 1.0 1.0 0.00 0.00 0.03 65 1018.7
20181211143055 40 245 1.0 1.0 0.00 0.00 0.03 65 1018.7
20181211142853 40 315 0.0 0.0 0.00 0.00 0.03 65 1018.7
20181211142819 40 315 0.0 0.0 0.00 0.00 0.03 65 1018.7
20181211142653 40 315 0.0 0.0 0.00 0.00 0.03 65 1018.7
20181211142535 40 0 0.0 1.0 0.00 0.00 0.03 65 1018.5
20181211142456 40 0 0.0 1.0 0.00 0.00 0.03 65 1018.5
20181211142257 40 0 0.0 1.0 0.00 0.00 0.03 65 1018.5
20181211142252 40 0 0.0 1.0 0.00 0.00 0.03 65 1018.5
20181211142027 40 283 0.0 1.0 0.00 0.00 0.03 65 1018.6
20181211141850 40 283 0.0 1.0 0.00 0.00 0.03 65 1018.6
20181211141608 40 270 1.0 2.0 0.00 0.00 0.03 64 1018.5
20181211141452 40 270 1.0 2.0 0.00 0.00 0.03 64 1018.5
20181211141449 40 270 1.0 2.0 0.00 0.00 0.03 64 1018.5
20181211141440 40 0 0.0 1.0 0.00 0.00 0.03 64 1018.5
20181211141237 40 0 0.0 1.0 0.00 0.00 0.03 64 1018.5
20181211141051 40 0 0.0 1.0 0.00 0.00 0.03 64 1018.5
20181211141049 40 0 0.0 1.0 0.00 0.00 0.03 64 1018.5
20181211141041 40 315 0.0 4.0 0.00 0.00 0.03 64 1018.4
20181211140841 40 315 0.0 4.0 0.00 0.00 0.03 64 1018.4
20181211140650 40 315 0.0 4.0 0.00 0.00 0.03 64 1018.4
20181211140647 40 315 0.0 4.0 0.00 0.00 0.03 64 1018.4
20181211140539 40 0 2.0 2.0 0.00 0.00 0.03 64 1018.3
20181211140442 40 0 2.0 2.0 0.00 0.00 0.03 64 1018.3
20181211140250 40 0 2.0 2.0 0.00 0.00 0.03 64 1018.3
20181211140247 40 0 2.0 2.0 0.00 0.00 0.03 64 1018.3
20181211140245 40 0 2.0 2.0 0.00 0.00 0.03 64 1018.3
20181211140018 40 180 0.0 0.0 0.00 0.00 0.03 64 1018.3
20181211135844 40 180 0.0 0.0 0.00 0.00 0.03 64 1018.3
20181211135723 40 270 0.0 0.0 0.00 0.00 0.03 64 1018.4
20181211135606 40 270 0.0 0.0 0.00 0.00 0.03 64 1018.4
20181211135448 40 270 0.0 0.0 0.00 0.00 0.03 64 1018.4
20181211135443 40 270 0.0 0.0 0.00 0.00 0.03 64 1018.4
20181211135241 40 261 1.0 2.0 0.00 0.00 0.03 64 1018.4
20181211135044 40 261 1.0 2.0 0.00 0.00 0.03 64 1018.4
20181211135041 40 261 1.0 2.0 0.00 0.00 0.03 64 1018.4
20181211134836 40 236 1.0 1.0 0.00 0.00 0.03 64 1018.4
20181211134644 40 236 1.0 1.0 0.00 0.00 0.03 64 1018.4
20181211134640 40 236 1.0 1.0 0.00 0.00 0.03 64 1018.4
20181211134602 40 180 0.0 1.0 0.00 0.00 0.03 64 1018.5
20181211134455 40 180 0.0 1.0 0.00 0.00 0.03 64 1018.5
20181211134418 40 180 0.0 1.0 0.00 0.00 0.03 64 1018.5
20181211134239 40 180 0.0 1.0 0.00 0.00 0.03 64 1018.5
20181211134047 40 180 0.0 2.0 0.00 0.00 0.03 64 1018.4
20181211134005 40 180 0.0 2.0 0.00 0.00 0.03 64 1018.4
20181211133840 40 180 0.0 2.0 0.00 0.00 0.03 64 1018.4
20181211133837 40 180 0.0 2.0 0.00 0.00 0.03 64 1018.4
20181211133606 40 180 0.0 2.0 0.00 0.00 0.03 64 1018.4
20181211133439 40 180 0.0 2.0 0.00 0.00 0.03 64 1018.4
20181211133436 40 180 0.0 2.0 0.00 0.00 0.03 64 1018.4
20181211133224 40 270 1.0 2.0 0.00 0.00 0.03 64 1018.5
20181211133143 40 270 1.0 2.0 0.00 0.00 0.03 64 1018.5
20181211133042 40 270 1.0 2.0 0.00 0.00 0.03 64 1018.5
20181211133035 40 270 1.0 2.0 0.00 0.00 0.03 64 1018.5
20181211133017 40 270 1.0 1.0 0.00 0.00 0.03 64 1018.4
20181211132910 40 270 1.0 1.0 0.00 0.00 0.03 64 1018.4
20181211132634 40 270 1.0 1.0 0.00 0.00 0.03 64 1018.4
20181211132336 40 227 1.0 1.0 0.00 0.00 0.03 64 1018.4
20181211132232 40 227 1.0 1.0 0.00 0.00 0.03 64 1018.4
20181211132113 40 238 1.0 2.0 0.00 0.00 0.03 64 1018.4
20181211131831 40 238 1.0 2.0 0.00 0.00 0.03 64 1018.4
20181211131650 40 270 1.0 1.0 0.00 0.00 0.03 64 1018.3
20181211131609 40 270 1.0 1.0 0.00 0.00 0.03 64 1018.3
20181211131434 40 270 1.0 1.0 0.00 0.00 0.03 64 1018.3
20181211131430 40 270 1.0 1.0 0.00 0.00 0.03 64 1018.3
20181211131028 40 310 1.0 1.0 0.00 0.00 0.03 64 1018.3
20181211131024 40 0 0.0 0.0 0.00 0.00 0.03 64 1018.3
20181211130940 40 0 0.0 0.0 0.00 0.00 0.03 64 1018.3
20181211130843 40 0 0.0 0.0 0.00 0.00 0.03 64 1018.3
20181211130631 40 0 0.0 0.0 0.00 0.00 0.03 64 1018.3
20181211130627 40 0 0.0 0.0 0.00 0.00 0.03 64 1018.3
20181211130554 40 346 0.0 1.0 0.00 0.00 0.03 64 1018.2
20181211130519 40 346 0.0 1.0 0.00 0.00 0.03 64 1018.2
20181211130230 40 346 0.0 1.0 0.00 0.00 0.03 64 1018.2
20181211130228 40 346 0.0 1.0 0.00 0.00 0.03 64 1018.2
20181211130226 40 346 0.0 1.0 0.00 0.00 0.03 64 1018.2
20181211130128 40 270 1.0 1.0 0.00 0.00 0.03 64 1018.2
20181211130021 40 270 1.0 1.0 0.00 0.00 0.03 64 1018.2
20181211125835 40 270 1.0 1.0 0.00 0.00 0.03 64 1018.2
20181211125827 40 270 1.0 1.0 0.00 0.00 0.03 64 1018.2
20181211125824 40 270 1.0 1.0 0.00 0.00 0.03 64 1018.2
20181211125423 40 270 0.0 1.0 0.00 0.00 0.03 64 1018.2
20181211125332 40 225 0.0 2.0 0.00 0.00 0.03 64 1018.2
20181211125227 40 225 0.0 2.0 0.00 0.00 0.03 64 1018.2
20181211125025 40 225 0.0 2.0 0.00 0.00 0.03 64 1018.2
20181211125022 40 225 0.0 2.0 0.00 0.00 0.03 64 1018.2
20181211124913 40 270 1.0 3.0 0.00 0.00 0.03 64 1018.1
20181211124831 40 270 1.0 3.0 0.00 0.00 0.03 64 1018.1
20181211124623 40 270 1.0 3.0 0.00 0.00 0.03 64 1018.1
20181211124620 40 270 1.0 3.0 0.00 0.00 0.03 64 1018.1
20181211124439 40 276 0.0 1.0 0.00 0.00 0.03 63 1018.1
20181211124222 40 276 0.0 1.0 0.00 0.00 0.03 63 1018.1
20181211124219 40 276 0.0 1.0 0.00 0.00 0.03 63 1018.1
20181211124036 40 315 0.0 2.0 0.00 0.00 0.03 63 1018.1
20181211123823 40 315 0.0 2.0 0.00 0.00 0.03 63 1018.1
20181211123818 40 315 0.0 2.0 0.00 0.00 0.03 63 1018.1
20181211123416 40 5 0.0 1.0 0.00 0.00 0.03 63 1018.2
20181211123217 40 247 0.0 2.0 0.00 0.00 0.03 63 1018.1
20181211123015 40 247 0.0 2.0 0.00 0.00 0.03 63 1018.1
20181211122822 40 225 1.0 1.0 0.00 0.00 0.03 63 1018.2
20181211122623 40 225 1.0 1.0 0.00 0.00 0.03 63 1018.2
20181211122614 40 225 1.0 1.0 0.00 0.00 0.03 63 1018.2
20181211122455 40 315 0.0 0.0 0.00 0.00 0.03 63 1018.3
20181211122349 40 315 0.0 0.0 0.00 0.00 0.03 63 1018.3
20181211122215 40 315 0.0 0.0 0.00 0.00 0.03 63 1018.3
20181211122212 40 315 0.0 0.0 0.00 0.00 0.03 63 1018.3
20181211122005 40 315 0.0 0.0 0.00 0.00 0.03 63 1018.3
20181211121907 40 315 0.0 0.0 0.00 0.00 0.03 63 1018.3
20181211121813 40 315 0.0 0.0 0.00 0.00 0.03 63 1018.3
20181211121811 40 315 0.0 0.0 0.00 0.00 0.03 63 1018.3
20181211121721 40 225 0.0 0.0 0.00 0.00 0.03 63 1018.3
20181211121553 40 225 0.0 0.0 0.00 0.00 0.03 63 1018.3
20181211121509 40 225 0.0 0.0 0.00 0.00 0.03 63 1018.3
20181211121417 40 225 0.0 0.0 0.00 0.00 0.03 63 1018.3
20181211121413 40 225 0.0 0.0 0.00 0.00 0.03 63 1018.3
20181211121410 40 225 0.0 0.0 0.00 0.00 0.03 63 1018.3
20181211121145 40 225 0.0 0.0 0.00 0.00 0.03 63 1018.4
20181211121013 40 225 0.0 0.0 0.00 0.00 0.03 63 1018.4
20181211121011 40 225 0.0 0.0 0.00 0.00 0.03 63 1018.4
20181211121009 40 225 0.0 0.0 0.00 0.00 0.03 63 1018.4
20181211120754 40 0 0.0 0.0 0.00 0.00 0.03 62 1018.4
20181211120616 40 0 0.0 0.0 0.00 0.00 0.03 62 1018.4
20181211120611 40 0 0.0 0.0 0.00 0.00 0.03 62 1018.4
20181211120607 40 0 0.0 0.0 0.00 0.00 0.03 62 1018.4
20181211120437 40 0 0.0 0.0 0.00 0.00 0.03 63 1018.3
20181211120209 40 0 0.0 0.0 0.00 0.00 0.03 63 1018.3
20181211120206 40 0 0.0 0.0 0.00 0.00 0.03 63 1018.3
20181211120036 40 270 0.0 0.0 0.00 0.00 0.03 63 1018.4
20181211115804 40 270 0.0 0.0 0.00 0.00 0.03 63 1018.4
20181211115726 40 270 0.0 1.0 0.00 0.00 0.03 63 1018.5
20181211115600 40 270 0.0 1.0 0.00 0.00 0.03 63 1018.5
20181211115454 40 270 0.0 1.0 0.00 0.00 0.03 63 1018.5
20181211115405 40 270 0.0 1.0 0.00 0.00 0.03 63 1018.5
20181211115403 40 270 0.0 1.0 0.00 0.00 0.03 63 1018.5
20181211115222 40 315 0.0 0.0 0.00 0.00 0.03 63 1018.6
20181211115008 40 315 0.0 0.0 0.00 0.00 0.03 63 1018.6
20181211115005 40 315 0.0 0.0 0.00 0.00 0.03 63 1018.6
20181211115002 40 315 0.0 0.0 0.00 0.00 0.03 63 1018.6
20181211114847 40 270 0.0 0.0 0.00 0.00 0.03 62 1018.6
20181211114745 40 270 0.0 0.0 0.00 0.00 0.03 62 1018.6
20181211114608 40 270 0.0 0.0 0.00 0.00 0.03 62 1018.6
20181211114601 40 270 0.0 0.0 0.00 0.00 0.03 62 1018.6
20181211114525 40 315 0.0 0.0 0.00 0.00 0.03 62 1018.6
20181211114447 40 315 0.0 0.0 0.00 0.00 0.03 62 1018.6
20181211114204 40 315 0.0 0.0 0.00 0.00 0.03 62 1018.6
20181211114159 40 315 0.0 0.0 0.00 0.00 0.03 62 1018.6
20181211114034 40 315 0.0 0.0 0.00 0.00 0.03 62 1018.6
20181211113954 40 315 0.0 0.0 0.00 0.00 0.03 62 1018.6
20181211113807 40 315 0.0 0.0 0.00 0.00 0.03 62 1018.6
20181211113801 40 315 0.0 0.0 0.00 0.00 0.03 62 1018.6
20181211113759 40 315 0.0 0.0 0.00 0.00 0.03 62 1018.6
20181211113605 40 315 0.0 1.0 0.00 0.00 0.03 62 1018.7
20181211113402 40 315 0.0 1.0 0.00 0.00 0.03 62 1018.7
20181211113356 40 315 0.0 1.0 0.00 0.00 0.03 62 1018.7
20181211113243 40 315 0.0 1.0 0.00 0.00 0.03 62 1018.7
20181211113148 40 315 0.0 1.0 0.00 0.00 0.03 62 1018.7
20181211112958 40 315 0.0 1.0 0.00 0.00 0.03 62 1018.7
20181211112955 40 315 0.0 1.0 0.00 0.00 0.03 62 1018.7
20181211112850 40 270 0.0 1.0 0.00 0.00 0.03 62 1018.8
20181211112554 40 270 0.0 1.0 0.00 0.00 0.03 62 1018.8
20181211112534 40 225 0.0 1.0 0.00 0.00 0.03 62 1018.7
20181211112333 40 225 0.0 1.0 0.00 0.00 0.03 62 1018.7
20181211112155 40 225 0.0 1.0 0.00 0.00 0.03 62 1018.7
20181211112153 40 225 0.0 1.0 0.00 0.00 0.03 62 1018.7
20181211112033 41 180 0.0 1.0 0.00 0.00 0.03 62 1018.7
20181211111758 41 180 0.0 1.0 0.00 0.00 0.03 62 1018.7
20181211111752 41 180 0.0 1.0 0.00 0.00 0.03 62 1018.7
20181211111354 41 180 0.0 1.0 0.00 0.00 0.03 62 1018.8
20181211111350 41 180 0.0 1.0 0.00 0.00 0.03 62 1018.8
20181211111324 41 225 1.0 1.0 0.00 0.00 0.03 62 1018.8
20181211111235 41 225 1.0 1.0 0.00 0.00 0.03 62 1018.8
20181211111152 41 225 1.0 1.0 0.00 0.00 0.03 62 1018.8
20181211110958 41 225 1.0 1.0 0.00 0.00 0.03 62 1018.8
20181211110951 41 225 1.0 1.0 0.00 0.00 0.03 62 1018.8
20181211110948 41 225 1.0 1.0 0.00 0.00 0.03 62 1018.8
20181211110745 41 225 0.0 0.0 0.00 0.00 0.03 62 1018.8
20181211110550 41 225 0.0 0.0 0.00 0.00 0.03 62 1018.8
20181211110547 41 225 0.0 0.0 0.00 0.00 0.03 62 1018.8
20181211110412 41 225 0.0 0.0 0.00 0.00 0.03 62 1018.8
20181211110157 41 225 0.0 0.0 0.00 0.00 0.03 62 1018.8
20181211110150 41 225 0.0 0.0 0.00 0.00 0.03 62 1018.8
20181211110146 41 225 0.0 0.0 0.00 0.00 0.03 62 1018.8
20181211105945 41 0 0.0 0.0 0.00 0.00 0.03 62 1018.8
20181211105855 41 0 0.0 0.0 0.00 0.00 0.03 62 1018.8
20181211105747 41 0 0.0 0.0 0.00 0.00 0.03 62 1018.8
20181211105745 41 0 0.0 0.0 0.00 0.00 0.03 62 1018.8
20181211105536 41 45 0.0 0.0 0.00 0.00 0.03 62 1018.9
20181211105349 41 45 0.0 0.0 0.00 0.00 0.03 62 1018.9
20181211105346 41 45 0.0 0.0 0.00 0.00 0.03 62 1018.9
20181211105344 41 45 0.0 0.0 0.00 0.00 0.03 62 1018.9
20181211105112 41 315 0.0 1.0 0.00 0.00 0.03 62 1019.0
20181211104953 41 315 0.0 1.0 0.00 0.00 0.03 62 1019.0
20181211104948 41 315 0.0 1.0 0.00 0.00 0.03 62 1019.0
20181211104946 41 315 0.0 1.0 0.00 0.00 0.03 62 1019.0
20181211104942 41 315 0.0 1.0 0.00 0.00 0.03 62 1019.0
20181211104744 41 315 0.0 1.0 0.00 0.00 0.03 62 1018.9
20181211104613 41 315 0.0 0.0 0.00 0.00 0.03 62 1018.8
20181211104543 41 315 0.0 1.0 0.00 0.00 0.03 62 1018.9
20181211104540 41 315 0.0 1.0 0.00 0.00 0.03 62 1018.9
20181211104139 41 315 0.0 0.0 0.00 0.00 0.03 62 1018.8
20181211103923 41 225 0.0 1.0 0.00 0.00 0.03 62 1018.8
20181211103741 41 225 0.0 1.0 0.00 0.00 0.03 62 1018.8
20181211103738 41 225 0.0 1.0 0.00 0.00 0.03 62 1018.8
20181211103603 42 270 1.0 1.0 0.00 0.00 0.03 62 1018.9
20181211103341 42 270 1.0 1.0 0.00 0.00 0.03 62 1018.9
20181211103337 42 270 1.0 1.0 0.00 0.00 0.03 62 1018.9
20181211103142 42 225 0.0 1.0 0.00 0.00 0.03 62 1018.9
20181211102940 42 225 0.0 1.0 0.00 0.00 0.03 62 1018.9
20181211102936 42 225 0.0 1.0 0.00 0.00 0.03 62 1018.9
20181211102633 42 245 0.0 1.0 0.00 0.00 0.03 62 1018.9
20181211102540 42 245 0.0 1.0 0.00 0.00 0.03 62 1018.9
20181211102534 42 245 0.0 1.0 0.00 0.00 0.03 62 1018.9
20181211102525 42 270 0.0 1.0 0.00 0.00 0.03 62 1018.9
20181211102334 42 270 0.0 1.0 0.00 0.00 0.03 62 1018.9
20181211102132 42 270 0.0 1.0 0.00 0.00 0.03 62 1018.9
20181211102128 42 315 0.0 1.0 0.00 0.00 0.03 61 1018.9
20181211101957 42 315 0.0 1.0 0.00 0.00 0.03 61 1018.9
20181211101735 42 315 0.0 1.0 0.00 0.00 0.03 61 1018.9
20181211101731 42 315 0.0 1.0 0.00 0.00 0.03 61 1018.9
20181211101547 42 315 0.0 1.0 0.00 0.00 0.03 61 1019.0
20181211101333 42 315 0.0 1.0 0.00 0.00 0.03 61 1019.0
20181211101330 42 315 0.0 1.0 0.00 0.00 0.03 61 1019.0
20181211101157 42 315 1.0 1.0 0.00 0.00 0.03 61 1018.9
20181211100929 42 315 1.0 1.0 0.00 0.00 0.03 61 1018.9
20181211100528 42 45 0.0 0.0 0.00 0.00 0.03 61 1019.0
20181211100329 42 0 0.0 1.0 0.00 0.00 0.03 61 1018.9
20181211100240 42 0 0.0 1.0 0.00 0.00 0.03 61 1018.9
20181211100132 42 0 0.0 1.0 0.00 0.00 0.03 61 1018.9
20181211100126 42 0 0.0 1.0 0.00 0.00 0.03 61 1018.9
20181211100000 42 180 0.0 0.0 0.00 0.00 0.03 62 1018.9
20181211095727 42 180 0.0 0.0 0.00 0.00 0.03 62 1018.9
20181211095724 42 180 0.0 0.0 0.00 0.00 0.03 62 1018.9
20181211095634 43 90 0.0 1.0 0.00 0.00 0.03 62 1018.9
20181211095552 43 90 0.0 1.0 0.00 0.00 0.03 62 1018.9
20181211095330 43 90 0.0 1.0 0.00 0.00 0.03 62 1018.9
20181211095326 43 90 0.0 1.0 0.00 0.00 0.03 62 1018.9
20181211095323 43 90 0.0 1.0 0.00 0.00 0.03 62 1018.9
20181211095146 43 225 0.0 1.0 0.00 0.00 0.03 62 1018.9
20181211095105 43 225 0.0 1.0 0.00 0.00 0.03 62 1018.9
20181211094926 43 225 0.0 1.0 0.00 0.00 0.03 62 1018.9
20181211094922 43 225 0.0 1.0 0.00 0.00 0.03 62 1018.9
20181211094713 43 225 1.0 1.0 0.00 0.00 0.03 62 1018.9
20181211094618 43 225 1.0 1.0 0.00 0.00 0.03 62 1018.9
20181211094526 43 225 1.0 1.0 0.00 0.00 0.03 62 1018.9
20181211094521 43 225 1.0 1.0 0.00 0.00 0.03 62 1018.9
20181211094357 44 261 2.0 2.0 0.00 0.00 0.03 62 1019.0
20181211094255 44 261 2.0 2.0 0.00 0.00 0.03 62 1019.0
20181211094123 44 261 2.0 2.0 0.00 0.00 0.03 62 1019.0
20181211094120 44 261 2.0 2.0 0.00 0.00 0.03 62 1019.0
20181211093937 43 270 3.0 3.0 0.00 0.00 0.03 61 1019.0
20181211093727 43 270 3.0 3.0 0.00 0.00 0.03 61 1019.0
20181211093722 43 270 3.0 3.0 0.00 0.00 0.03 61 1019.0
20181211093718 43 270 3.0 3.0 0.00 0.00 0.03 61 1019.0
20181211093603 43 270 2.0 2.0 0.00 0.00 0.03 61 1019.0
20181211093527 43 270 2.0 2.0 0.00 0.00 0.03 61 1019.0
20181211093438 43 270 2.0 2.0 0.00 0.00 0.03 61 1019.0
20181211093338 43 315 1.0 1.0 0.00 0.00 0.03 61 1018.8
20181211093319 43 270 2.0 2.0 0.00 0.00 0.03 61 1019.0
20181211093317 43 270 2.0 2.0 0.00 0.00 0.03 61 1019.0
20181211093159 43 315 1.0 1.0 0.00 0.00 0.03 61 1018.8
20181211092918 43 315 1.0 1.0 0.00 0.00 0.03 61 1018.8
20181211092915 43 315 1.0 1.0 0.00 0.00 0.03 61 1018.8
20181211092741 43 315 0.0 1.0 0.00 0.00 0.03 61 1018.9
20181211092528 43 315 0.0 1.0 0.00 0.00 0.03 61 1019.0
20181211092517 43 315 0.0 1.0 0.00 0.00 0.03 61 1018.9
20181211092514 43 315 0.0 1.0 0.00 0.00 0.03 61 1018.9
20181211092257 43 315 0.0 1.0 0.00 0.00 0.03 61 1019.0
20181211092116 43 315 0.0 1.0 0.00 0.00 0.03 61 1019.0
20181211092113 43 315 0.0 1.0 0.00 0.00 0.03 61 1019.0
20181211091949 43 315 1.0 3.0 0.00 0.00 0.03 61 1018.9
20181211091858 43 315 1.0 3.0 0.00 0.00 0.03 61 1018.9
20181211091716 43 315 1.0 3.0 0.00 0.00 0.03 61 1018.9
20181211091712 43 315 1.0 3.0 0.00 0.00 0.03 61 1018.9
20181211091507 44 0 0.0 1.0 0.00 0.00 0.03 61 1018.8
20181211091404 44 0 0.0 1.0 0.00 0.00 0.03 61 1018.8
20181211091310 44 0 0.0 1.0 0.00 0.00 0.03 61 1018.8
20181211091225 44 0 0.0 0.0 0.00 0.00 0.03 61 1018.8
20181211091137 44 0 0.0 0.0 0.00 0.00 0.03 61 1018.8
20181211091057 44 0 0.0 0.0 0.00 0.00 0.03 61 1018.8
20181211090912 44 0 0.0 0.0 0.00 0.00 0.03 61 1018.8
20181211090909 44 0 0.0 0.0 0.00 0.00 0.03 61 1018.8
20181211090756 44 0 0.0 0.0 0.00 0.00 0.03 61 1018.8
20181211090723 44 0 0.0 0.0 0.00 0.00 0.03 61 1018.8
20181211090510 44 0 0.0 0.0 0.00 0.00 0.03 61 1018.8
20181211090508 44 0 0.0 0.0 0.00 0.00 0.03 61 1018.8
20181211090313 44 0 0.0 0.0 0.00 0.00 0.03 61 1018.9
20181211090109 44 0 0.0 0.0 0.00 0.00 0.03 61 1018.9
20181211090107 44 0 0.0 0.0 0.00 0.00 0.03 61 1018.9
20181211085955 44 0 0.0 1.0 0.00 0.00 0.03 61 1019.0
20181211085837 44 0 0.0 1.0 0.00 0.00 0.03 61 1019.0
20181211085708 44 0 0.0 1.0 0.00 0.00 0.03 61 1019.0
20181211085705 44 0 0.0 1.0 0.00 0.00 0.03 61 1019.0
20181211085548 44 0 0.0 1.0 0.00 0.00 0.03 61 1018.9
20181211085511 44 0 0.0 1.0 0.00 0.00 0.03 61 1018.9
20181211085409 44 0 0.0 1.0 0.00 0.00 0.03 61 1018.9
20181211085308 44 0 0.0 1.0 0.00 0.00 0.03 61 1018.9
20181211085306 44 0 0.0 1.0 0.00 0.00 0.03 61 1018.9
20181211084944 44 0 1.0 1.0 0.00 0.00 0.03 60 1018.8
20181211084729 44 0 1.0 1.0 0.00 0.00 0.03 60 1018.8
20181211084503 44 0 1.0 1.0 0.00 0.00 0.03 60 1018.8
20181211084501 44 0 1.0 1.0 0.00 0.00 0.03 60 1018.8
20181211084412 45 90 0.0 1.0 0.00 0.00 0.03 60 1018.8
20181211084304 45 90 0.0 1.0 0.00 0.00 0.03 60 1018.8
20181211084104 45 90 0.0 1.0 0.00 0.00 0.03 60 1018.8
20181211084100 45 90 0.0 1.0 0.00 0.00 0.03 60 1018.8
20181211084036 45 90 0.0 4.0 0.00 0.00 0.03 60 1018.8
20181211083822 45 90 0.0 4.0 0.00 0.00 0.03 60 1018.8
20181211083700 45 90 0.0 4.0 0.00 0.00 0.03 60 1018.8
20181211083658 45 90 0.0 4.0 0.00 0.00 0.03 60 1018.8
20181211083448 45 90 0.0 2.0 0.00 0.00 0.03 60 1018.8
20181211083358 45 90 0.0 2.0 0.00 0.00 0.03 60 1018.8
20181211083301 45 90 0.0 2.0 0.00 0.00 0.03 60 1018.8
20181211083258 45 90 0.0 2.0 0.00 0.00 0.03 60 1018.8
20181211083120 45 180 1.0 2.0 0.00 0.00 0.03 60 1018.8
20181211082900 45 180 1.0 2.0 0.00 0.00 0.03 60 1018.8
20181211082856 45 180 1.0 2.0 0.00 0.00 0.03 60 1018.8
20181211082827 45 180 2.0 2.0 0.00 0.00 0.03 60 1018.9
20181211082712 45 180 2.0 2.0 0.00 0.00 0.03 60 1018.9
20181211082621 45 180 2.0 2.0 0.00 0.00 0.03 60 1018.9
20181211082502 45 180 2.0 2.0 0.00 0.00 0.03 60 1018.9
20181211082459 45 180 2.0 2.0 0.00 0.00 0.03 60 1018.9
20181211082454 45 180 2.0 2.0 0.00 0.00 0.03 60 1018.9
20181211082319 45 180 0.0 0.0 0.00 0.00 0.03 60 1018.9
20181211082241 45 180 0.0 0.0 0.00 0.00 0.03 60 1018.9
20181211082053 45 180 0.0 0.0 0.00 0.00 0.03 60 1018.9
20181211082048 45 315 0.0 1.0 0.00 0.00 0.03 60 1018.9
20181211081909 45 315 0.0 1.0 0.00 0.00 0.03 60 1018.9
20181211081657 45 315 0.0 1.0 0.00 0.00 0.03 60 1018.9
20181211081655 45 315 0.0 1.0 0.00 0.00 0.03 60 1018.9
20181211081652 45 315 0.0 1.0 0.00 0.00 0.03 60 1018.9
20181211081558 45 315 0.0 1.0 0.00 0.00 0.03 60 1018.9
20181211081425 45 315 0.0 1.0 0.00 0.00 0.03 60 1018.9
20181211081251 45 315 0.0 1.0 0.00 0.00 0.03 60 1018.9
20181211081135 45 0 1.0 1.0 0.00 0.00 0.03 60 1018.9
20181211081046 45 0 1.0 1.0 0.00 0.00 0.03 60 1018.9
20181211080852 45 0 1.0 1.0 0.00 0.00 0.03 60 1018.9
20181211080849 45 0 1.0 1.0 0.00 0.00 0.03 60 1018.9
20181211080654 46 0 0.0 1.0 0.00 0.00 0.03 60 1018.9
20181211080451 46 0 0.0 1.0 0.00 0.00 0.03 60 1018.9
20181211080448 46 0 0.0 1.0 0.00 0.00 0.03 60 1018.9
20181211080237 46 225 0.0 2.0 0.00 0.00 0.03 60 1019.0
20181211080145 46 225 0.0 2.0 0.00 0.00 0.03 60 1019.0
20181211080051 46 225 0.0 2.0 0.00 0.00 0.03 60 1019.0
20181211080049 46 225 0.0 2.0 0.00 0.00 0.03 60 1019.0
20181211080047 46 202 0.0 2.0 0.00 0.00 0.03 60 1018.9
20181211075957 46 202 0.0 2.0 0.00 0.00 0.03 60 1018.9
20181211075924 46 202 0.0 2.0 0.00 0.00 0.03 60 1018.9
20181211075818 46 202 0.0 2.0 0.00 0.00 0.03 60 1018.9
20181211075649 46 202 0.0 2.0 0.00 0.00 0.03 60 1018.9
20181211075645 46 202 0.0 2.0 0.00 0.00 0.03 60 1018.9
20181211075450 46 189 2.0 2.0 0.00 0.00 0.03 60 1019.0
20181211075244 46 189 2.0 2.0 0.00 0.00 0.03 60 1019.0
20181211075125 46 315 0.0 0.0 0.00 0.00 0.03 60 1018.9
20181211075028 46 315 0.0 0.0 0.00 0.00 0.03 60 1018.9
20181211074945 46 315 0.0 0.0 0.00 0.00 0.03 60 1018.9
20181211074851 46 315 0.0 0.0 0.00 0.00 0.03 60 1018.9
20181211074847 46 315 0.0 0.0 0.00 0.00 0.03 60 1018.9
20181211074843 46 315 0.0 0.0 0.00 0.00 0.03 60 1018.9
20181211074709 46 315 1.0 1.0 0.00 0.00 0.03 60 1018.9
20181211074449 46 315 1.0 1.0 0.00 0.00 0.03 60 1018.9
20181211074441 46 315 1.0 1.0 0.00 0.00 0.03 60 1018.9
20181211074333 46 270 0.0 0.0 0.00 0.00 0.03 60 1019.0
20181211074257 46 270 0.0 0.0 0.00 0.00 0.03 60 1019.0
20181211074040 46 270 0.0 0.0 0.00 0.00 0.03 60 1019.0
20181211073909 47 315 0.0 1.0 0.00 0.00 0.03 60 1018.9
20181211073823 47 315 0.0 1.0 0.00 0.00 0.03 60 1018.9
20181211073640 47 315 0.0 1.0 0.00 0.00 0.03 60 1018.9
20181211073451 47 315 0.0 2.0 0.00 0.00 0.03 60 1018.9
20181211073240 47 315 0.0 2.0 0.00 0.00 0.03 60 1018.9
20181211073237 47 315 0.0 2.0 0.00 0.00 0.03 60 1018.9
20181211073121 47 290 3.0 4.0 0.00 0.00 0.03 59 1018.8
20181211072931 47 290 3.0 4.0 0.00 0.00 0.03 59 1018.8
20181211072839 47 290 3.0 4.0 0.00 0.00 0.03 59 1018.8
20181211072836 47 290 3.0 4.0 0.00 0.00 0.03 59 1018.8
20181211072713 47 270 2.0 2.0 0.00 0.00 0.03 59 1018.9
20181211072556 47 270 2.0 2.0 0.00 0.00 0.03 59 1018.9
20181211072440 47 270 2.0 2.0 0.00 0.00 0.03 59 1018.9
20181211072435 47 270 2.0 2.0 0.00 0.00 0.03 59 1018.9
20181211072034 47 270 0.0 2.0 0.00 0.00 0.03 59 1018.9
20181211071857 47 180 2.0 2.0 0.00 0.00 0.03 59 1018.9
20181211071632 47 180 2.0 2.0 0.00 0.00 0.03 59 1018.9
20181211071442 47 90 0.0 1.0 0.00 0.00 0.03 59 1018.7
20181211071345 47 90 0.0 1.0 0.00 0.00 0.03 59 1018.7
20181211071236 47 90 0.0 1.0 0.00 0.00 0.03 59 1018.7
20181211071234 47 90 0.0 1.0 0.00 0.00 0.03 59 1018.7
20181211071231 47 90 0.0 1.0 0.00 0.00 0.03 59 1018.7
20181211071034 47 90 0.0 0.0 0.00 0.00 0.03 59 1018.7
20181211070832 47 90 0.0 0.0 0.00 0.00 0.03 59 1018.7
20181211070829 47 90 0.0 0.0 0.00 0.00 0.03 59 1018.7
20181211070638 47 0 0.0 2.0 0.00 0.00 0.03 59 1018.8
20181211070435 47 0 0.0 2.0 0.00 0.00 0.03 59 1018.8
20181211070433 47 0 0.0 2.0 0.00 0.00 0.03 59 1018.8
20181211070428 47 0 0.0 2.0 0.00 0.00 0.03 59 1018.8
20181211070147 48 0 2.0 2.0 0.00 0.00 0.03 59 1018.9
20181211070033 48 0 2.0 2.0 0.00 0.00 0.03 59 1018.9
20181211070027 48 0 2.0 2.0 0.00 0.00 0.03 59 1018.9
20181211065626 48 0 0.0 1.0 0.00 0.00 0.03 59 1018.9
20181211065607 48 225 1.0 3.0 0.00 0.00 0.03 59 1019.0
20181211065440 48 225 1.0 3.0 0.00 0.00 0.03 59 1019.0
20181211065228 48 225 1.0 3.0 0.00 0.00 0.03 59 1019.0
20181211065224 48 225 1.0 3.0 0.00 0.00 0.03 59 1019.0
20181211064959 48 204 2.0 3.0 0.00 0.00 0.03 59 1019.1
20181211064906 48 204 2.0 3.0 0.00 0.00 0.03 59 1019.1
20181211064825 48 204 2.0 3.0 0.00 0.00 0.03 59 1019.1
20181211064823 48 204 2.0 3.0 0.00 0.00 0.03 59 1019.1
20181211064653 48 315 0.0 2.0 0.00 0.00 0.03 59 1019.0
20181211064614 48 315 0.0 2.0 0.00 0.00 0.03 59 1019.0
20181211064425 48 315 0.0 2.0 0.00 0.00 0.03 59 1019.0
20181211064421 48 315 0.0 2.0 0.00 0.00 0.03 59 1019.0
20181211064252 48 344 1.0 2.0 0.00 0.00 0.03 59 1019.1
20181211064023 48 344 1.0 2.0 0.00 0.00 0.03 59 1019.1
20181211064020 48 344 1.0 2.0 0.00 0.00 0.03 59 1019.1
20181211063841 49 333 1.0 2.0 0.00 0.00 0.03 59 1019.2
20181211063623 49 333 1.0 2.0 0.00 0.00 0.03 59 1019.2
20181211063619 49 333 1.0 2.0 0.00 0.00 0.03 59 1019.2
20181211063504 49 315 0.0 2.0 0.00 0.00 0.03 59 1019.3
20181211063244 49 225 1.0 2.0 0.00 0.00 0.03 58 1019.4
20181211063223 49 315 0.0 2.0 0.00 0.00 0.03 59 1019.3
20181211063218 49 315 0.0 2.0 0.00 0.00 0.03 59 1019.3
20181211063119 49 225 1.0 2.0 0.00 0.00 0.03 58 1019.4
20181211062821 49 225 1.0 2.0 0.00 0.00 0.03 58 1019.4
20181211062819 49 225 1.0 2.0 0.00 0.00 0.03 58 1019.4
20181211062817 49 225 1.0 2.0 0.00 0.00 0.03 58 1019.4
20181211062653 49 225 1.0 1.0 0.00 0.00 0.03 58 1019.3
20181211062422 49 225 1.0 1.0 0.00 0.00 0.03 58 1019.3
20181211062419 49 225 1.0 1.0 0.00 0.00 0.03 58 1019.3
20181211062415 49 225 1.0 1.0 0.00 0.00 0.03 58 1019.3
20181211062319 49 225 0.0 1.0 0.00 0.00 0.03 58 1019.2
20181211062208 49 225 0.0 1.0 0.00 0.00 0.03 58 1019.2
20181211062131 49 0 0.0 0.0 0.00 0.00 0.03 58 1019.3
20181211062016 49 225 0.0 1.0 0.00 0.00 0.03 58 1019.2
20181211062013 49 225 0.0 1.0 0.00 0.00 0.03 58 1019.2
20181211061901 49 0 0.0 0.0 0.00 0.00 0.03 58 1019.3
20181211061829 49 0 0.0 0.0 0.00 0.00 0.03 58 1019.3
20181211061614 49 0 0.0 0.0 0.00 0.00 0.03 58 1019.3
20181211061612 49 0 0.0 0.0 0.00 0.00 0.03 58 1019.3
20181211061439 49 4 0.0 0.0 0.00 0.00 0.03 58 1019.3
20181211061342 49 4 0.0 0.0 0.00 0.00 0.03 58 1019.3
20181211061211 49 4 0.0 0.0 0.00 0.00 0.03 58 1019.3
20181211060710 49 20 3.0 3.0 0.00 0.00 0.03 58 1019.2
20181211060414 49 20 3.0 3.0 0.00 0.00 0.03 58 1019.2
20181211060411 49 20 3.0 3.0 0.00 0.00 0.03 58 1019.2
20181211060409 49 20 3.0 3.0 0.00 0.00 0.03 58 1019.2
20181211060330 49 45 3.0 3.0 0.00 0.00 0.03 58 1019.3
20181211060255 49 45 3.0 3.0 0.00 0.00 0.03 58 1019.3
20181211060223 49 45 3.0 3.0 0.00 0.00 0.03 58 1019.3
20181211060017 49 45 3.0 3.0 0.00 0.00 0.03 58 1019.3
20181211060008 49 45 3.0 3.0 0.00 0.00 0.03 58 1019.3
20181211055833 49 180 1.0 3.0 0.00 0.00 0.03 58 1019.4
20181211055612 49 180 1.0 3.0 0.00 0.00 0.03 58 1019.4
20181211055605 49 180 1.0 3.0 0.00 0.00 0.03 58 1019.4
20181211055536 49 270 2.0 4.0 0.00 0.00 0.03 58 1019.3
20181211055437 49 270 2.0 4.0 0.00 0.00 0.03 58 1019.3
20181211055211 49 270 2.0 4.0 0.00 0.00 0.03 58 1019.3
20181211055204 49 270 2.0 4.0 0.00 0.00 0.03 58 1019.3
20181211054803 49 270 2.0 2.0 0.00 0.00 0.03 58 1019.3
20181211054550 49 270 1.0 2.0 0.00 0.00 0.03 58 1019.2
20181211054406 49 270 1.0 2.0 0.00 0.00 0.03 58 1019.2
20181211054402 49 270 1.0 2.0 0.00 0.00 0.03 58 1019.2
20181211054233 49 270 1.0 1.0 0.00 0.00 0.03 58 1019.1
20181211054010 49 270 1.0 1.0 0.00 0.00 0.03 58 1019.1
20181211054006 49 270 1.0 1.0 0.00 0.00 0.03 58 1019.1
20181211054001 49 270 1.0 1.0 0.00 0.00 0.03 58 1019.1
20181211053821 49 90 0.0 1.0 0.00 0.00 0.03 57 1018.9
20181211053718 49 90 0.0 1.0 0.00 0.00 0.03 57 1018.9
20181211053607 49 90 0.0 1.0 0.00 0.00 0.03 57 1018.9
20181211053603 49 90 0.0 1.0 0.00 0.00 0.03 57 1018.9
20181211053333 49 85 2.0 4.0 0.00 0.00 0.03 57 1018.7
20181211053200 49 85 2.0 4.0 0.00 0.00 0.03 57 1018.7
20181211053157 49 85 2.0 4.0 0.00 0.00 0.03 57 1018.7
20181211053037 50 90 3.0 3.0 0.00 0.00 0.03 57 1019.0
20181211052901 50 90 3.0 3.0 0.00 0.00 0.03 57 1019.0
20181211052759 50 90 3.0 3.0 0.00 0.00 0.03 57 1019.0
20181211052756 50 90 3.0 3.0 0.00 0.00 0.03 57 1019.0
20181211052705 50 0 0.0 0.0 0.00 0.00 0.03 57 1019.1
20181211052551 50 0 0.0 0.0 0.00 0.00 0.03 57 1019.1
20181211052400 50 0 0.0 0.0 0.00 0.00 0.03 57 1019.1
20181211052355 50 0 0.0 0.0 0.00 0.00 0.03 57 1019.1
20181211052132 50 0 0.0 1.0 0.00 0.00 0.03 57 1019.1
20181211052057 50 0 0.0 1.0 0.00 0.00 0.03 57 1019.1
20181211052002 50 0 0.0 1.0 0.00 0.00 0.03 57 1019.1
20181211051954 50 0 0.0 1.0 0.00 0.00 0.03 57 1019.1
20181211051840 50 315 0.0 0.0 0.00 0.00 0.03 57 1019.3
20181211051556 50 315 0.0 0.0 0.00 0.00 0.03 57 1019.3
20181211051553 50 315 0.0 0.0 0.00 0.00 0.03 57 1019.3
20181211051434 50 196 0.0 1.0 0.00 0.00 0.03 57 1019.4
20181211051338 50 196 0.0 1.0 0.00 0.00 0.03 57 1019.4
20181211051157 50 196 0.0 1.0 0.00 0.00 0.03 57 1019.4
20181211051155 50 196 0.0 1.0 0.00 0.00 0.03 57 1019.4
20181211051151 50 196 0.0 1.0 0.00 0.00 0.03 57 1019.4
20181211051036 50 45 0.0 0.0 0.00 0.00 0.03 57 1019.2
20181211051000 50 45 0.0 0.0 0.00 0.00 0.03 57 1019.2
20181211050916 50 45 0.0 0.0 0.00 0.00 0.03 57 1019.2
20181211050752 50 45 0.0 0.0 0.00 0.00 0.03 57 1019.2
20181211050750 50 45 0.0 0.0 0.00 0.00 0.03 57 1019.2
20181211050455 50 45 0.0 1.0 0.00 0.00 0.03 57 1019.0
20181211050354 50 45 0.0 1.0 0.00 0.00 0.03 57 1019.0
20181211050348 50 45 0.0 1.0 0.00 0.00 0.03 57 1019.0
20181211050317 50 90 0.0 0.0 0.00 0.00 0.03 57 1019.0
20181211050108 50 90 0.0 0.0 0.00 0.00 0.03 57 1019.0
20181211045950 50 90 0.0 0.0 0.00 0.00 0.03 57 1019.0
20181211045947 50 90 0.0 0.0 0.00 0.00 0.03 57 1019.0
20181211045546 50 0 0.0 1.0 0.00 0.00 0.03 57 1019.1
20181211044751 51 225 0.0 1.0 0.00 0.00 0.03 57 1019.1
20181211044744 51 225 0.0 1.0 0.00 0.00 0.03 57 1019.1
20181211044611 51 225 1.0 1.0 0.00 0.00 0.03 57 1019.0
20181211044540 51 225 1.0 1.0 0.00 0.00 0.03 57 1019.0
20181211044349 51 225 1.0 1.0 0.00 0.00 0.03 57 1019.0
20181211044342 51 225 1.0 1.0 0.00 0.00 0.03 57 1019.0
20181211044154 51 225 1.0 3.0 0.00 0.00 0.03 56 1019.0
20181211044117 51 225 1.0 3.0 0.00 0.00 0.03 56 1019.0
20181211043943 51 225 1.0 3.0 0.00 0.00 0.03 56 1019.0
20181211043940 51 225 1.0 3.0 0.00 0.00 0.03 56 1019.0
20181211043904 51 261 2.0 2.0 0.00 0.00 0.03 56 1019.0
20181211043752 51 261 2.0 2.0 0.00 0.00 0.03 56 1019.0
20181211043544 51 261 2.0 2.0 0.00 0.00 0.03 56 1019.0
20181211043539 51 261 2.0 2.0 0.00 0.00 0.03 56 1019.0
20181211043519 51 0 0.0 1.0 0.00 0.00 0.03 56 1018.9
20181211043355 51 0 0.0 1.0 0.00 0.00 0.03 56 1018.9
20181211043142 51 0 0.0 1.0 0.00 0.00 0.03 56 1018.9
20181211043138 51 0 0.0 1.0 0.00 0.00 0.03 56 1018.9
20181211043015 51 225 1.0 1.0 0.00 0.00 0.03 56 1018.9
20181211042737 51 225 1.0 1.0 0.00 0.00 0.03 56 1018.9
20181211042616 52 340 0.0 1.0 0.00 0.00 0.03 56 1019.0
20181211042335 52 340 0.0 1.0 0.00 0.00 0.03 56 1019.0
20181211042139 52 45 0.0 0.0 0.00 0.00 0.03 56 1018.9
20181211041937 52 45 0.0 0.0 0.00 0.00 0.03 56 1018.9
20181211041934 52 45 0.0 0.0 0.00 0.00 0.03 56 1018.9
20181211041835 52 270 0.0 1.0 0.00 0.00 0.03 56 1018.9
20181211041724 52 270 0.0 1.0 0.00 0.00 0.03 56 1018.9
20181211041538 52 270 1.0 2.0 0.00 0.00 0.03 56 1019.1
20181211041535 52 270 0.0 1.0 0.00 0.00 0.03 56 1018.9
20181211041532 52 270 0.0 1.0 0.00 0.00 0.03 56 1018.9
20181211041317 52 270 1.0 2.0 0.00 0.00 0.03 56 1019.1
20181211041139 52 270 1.0 2.0 0.00 0.00 0.03 56 1019.1
20181211041134 52 225 0.0 2.0 0.00 0.00 0.03 56 1019.0
20181211041131 52 270 1.0 2.0 0.00 0.00 0.03 56 1019.1
20181211041049 52 225 0.0 2.0 0.00 0.00 0.03 56 1019.0
20181211041003 52 225 0.0 2.0 0.00 0.00 0.03 56 1019.0
20181211040730 52 225 0.0 2.0 0.00 0.00 0.03 56 1019.0
20181211040624 52 225 0.0 2.0 0.00 0.00 0.03 55 1019.0
20181211040535 52 225 0.0 2.0 0.00 0.00 0.03 55 1019.0
20181211040334 52 270 2.0 2.0 0.00 0.00 0.03 55 1019.1
20181211040329 52 225 0.0 2.0 0.00 0.00 0.03 55 1019.0
20181211040115 52 270 2.0 2.0 0.00 0.00 0.03 55 1019.1
20181211035938 52 270 2.0 2.0 0.00 0.00 0.03 55 1019.1
20181211035927 52 270 2.0 2.0 0.00 0.00 0.03 55 1019.1
20181211035836 52 337 3.0 4.0 0.00 0.00 0.03 55 1018.9
20181211035755 52 339 3.0 3.0 0.00 0.00 0.03 55 1019.0
20181211035745 52 337 3.0 4.0 0.00 0.00 0.03 55 1018.9
20181211035531 52 337 3.0 4.0 0.00 0.00 0.03 55 1018.9
20181211035529 52 337 3.0 4.0 0.00 0.00 0.03 55 1018.9
20181211035526 52 337 3.0 4.0 0.00 0.00 0.03 55 1018.9
20181211035345 52 339 3.0 3.0 0.00 0.00 0.03 55 1019.0
20181211035125 52 339 3.0 3.0 0.00 0.00 0.03 55 1019.0
20181211034922 53 225 0.0 1.0 0.00 0.00 0.03 55 1019.0
20181211034731 53 225 0.0 1.0 0.00 0.00 0.03 55 1019.0
20181211034727 53 225 0.0 1.0 0.00 0.00 0.03 55 1019.0
20181211034724 53 225 0.0 1.0 0.00 0.00 0.03 55 1019.0
20181211034710 53 0 0.0 2.0 0.00 0.00 0.03 55 1019.0
20181211034548 53 0 0.0 2.0 0.00 0.00 0.03 55 1019.0
20181211034322 53 0 0.0 2.0 0.00 0.00 0.03 55 1019.0
20181211034143 53 198 1.0 2.0 0.00 0.00 0.03 55 1019.1
20181211033921 53 198 1.0 2.0 0.00 0.00 0.03 55 1019.1
20181211033821 54 180 2.0 2.0 0.00 0.00 0.03 54 1019.1
20181211033642 54 180 2.0 2.0 0.00 0.00 0.03 54 1019.1
20181211033520 54 180 2.0 2.0 0.00 0.00 0.03 54 1019.1
20181211033518 54 180 1.0 2.0 0.00 0.00 0.03 54 1019.0
20181211033434 54 180 1.0 2.0 0.00 0.00 0.03 54 1019.0
20181211033125 54 180 1.0 2.0 0.00 0.00 0.03 54 1019.0
20181211033118 54 180 1.0 2.0 0.00 0.00 0.03 54 1019.0
20181211033031 54 135 0.0 1.0 0.00 0.00 0.03 54 1019.0
20181211032930 54 135 0.0 1.0 0.00 0.00 0.03 54 1019.0
20181211032724 54 270 1.0 1.0 0.00 0.00 0.03 54 1019.0
20181211032720 54 135 0.0 1.0 0.00 0.00 0.03 54 1019.0
20181211032717 54 135 0.0 1.0 0.00 0.00 0.03 54 1019.0
20181211032454 54 270 1.0 1.0 0.00 0.00 0.03 54 1019.0
20181211032323 54 270 1.0 1.0 0.00 0.00 0.03 54 1019.0
20181211032315 54 270 1.0 1.0 0.00 0.00 0.03 54 1019.0
20181211032127 54 225 1.0 1.0 0.00 0.00 0.03 54 1019.0
20181211032049 54 225 1.0 1.0 0.00 0.00 0.03 54 1019.0
20181211031918 54 225 1.0 1.0 0.00 0.00 0.03 54 1019.0
20181211031914 54 225 1.0 1.0 0.00 0.00 0.03 54 1019.0
20181211031831 55 180 0.0 1.0 0.00 0.00 0.03 54 1019.1
20181211031627 55 180 0.0 1.0 0.00 0.00 0.03 54 1019.1
20181211031520 55 180 0.0 1.0 0.00 0.00 0.03 54 1019.1
20181211031513 55 180 0.0 1.0 0.00 0.00 0.03 54 1019.1
20181211031419 55 180 1.0 1.0 0.00 0.00 0.03 54 1019.0
20181211031345 55 180 1.0 1.0 0.00 0.00 0.03 54 1019.0
20181211031305 55 180 1.0 1.0 0.00 0.00 0.03 54 1019.0
20181211031118 55 180 1.0 1.0 0.00 0.00 0.03 54 1019.0
20181211031112 55 180 1.0 1.0 0.00 0.00 0.03 54 1019.0
20181211030946 55 135 0.0 1.0 0.00 0.00 0.03 53 1018.9
20181211030715 55 135 0.0 1.0 0.00 0.00 0.03 53 1018.9
20181211030710 55 135 0.0 1.0 0.00 0.00 0.03 53 1018.9
20181211030312 55 96 1.0 3.0 0.00 0.00 0.03 53 1019.0
20181211030309 55 96 1.0 3.0 0.00 0.00 0.03 53 1019.0
20181211030100 55 108 2.0 3.0 0.00 0.00 0.03 53 1018.9
20181211030014 55 108 2.0 3.0 0.00 0.00 0.03 53 1018.9
20181211025914 55 108 2.0 3.0 0.00 0.00 0.03 53 1018.9
20181211025910 55 108 2.0 3.0 0.00 0.00 0.03 53 1018.9
20181211025908 55 108 2.0 3.0 0.00 0.00 0.03 53 1018.9
20181211025506 55 135 0.0 1.0 0.00 0.00 0.03 53 1019.0
20181211025419 55 0 0.0 1.0 0.00 0.00 0.03 53 1018.9
20181211025321 55 0 0.0 1.0 0.00 0.00 0.03 53 1018.9
20181211025114 55 0 0.0 1.0 0.00 0.00 0.03 53 1018.9
20181211025105 55 0 0.0 1.0 0.00 0.00 0.03 53 1018.9
20181211024911 55 0 0.0 0.0 0.00 0.00 0.03 53 1018.7
20181211024712 55 0 0.0 0.0 0.00 0.00 0.03 53 1018.7
20181211024704 55 0 0.0 0.0 0.00 0.00 0.03 53 1018.7
20181211024503 55 45 1.0 1.0 0.00 0.00 0.03 53 1018.8
20181211024342 55 0 0.0 0.0 0.00 0.00 0.03 52 1018.9
20181211024309 55 45 1.0 1.0 0.00 0.00 0.03 53 1018.8
20181211024305 55 45 1.0 1.0 0.00 0.00 0.03 53 1018.8
20181211024302 55 45 1.0 1.0 0.00 0.00 0.03 53 1018.8
20181211024059 55 0 0.0 0.0 0.00 0.00 0.03 52 1018.9
20181211023901 55 0 0.0 0.0 0.00 0.00 0.03 52 1018.9
20181211023606 56 45 0.0 0.0 0.00 0.00 0.03 52 1018.9
20181211023503 56 45 0.0 0.0 0.00 0.00 0.03 52 1018.9
20181211023500 56 45 0.0 0.0 0.00 0.00 0.03 52 1018.9
20181211023340 56 45 0.0 0.0 0.00 0.00 0.03 52 1018.8
20181211023242 56 45 0.0 0.0 0.00 0.00 0.03 52 1018.8
20181211023059 56 45 0.0 0.0 0.00 0.00 0.03 52 1018.8
20181211022909 56 315 0.0 1.0 0.00 0.00 0.03 52 1018.9
20181211022700 56 315 0.0 1.0 0.00 0.00 0.03 52 1018.9
20181211022657 56 315 0.0 1.0 0.00 0.00 0.03 52 1018.9
20181211022435 56 90 0.0 1.0 0.00 0.00 0.03 51 1018.9
20181211022307 56 90 0.0 1.0 0.00 0.00 0.03 51 1018.9
20181211022256 56 90 0.0 1.0 0.00 0.00 0.03 51 1018.9
20181211022129 56 56 1.0 1.0 0.00 0.00 0.03 51 1018.8
20181211022039 56 56 1.0 1.0 0.00 0.00 0.03 51 1018.8
20181211021931 56 45 0.0 1.0 0.00 0.00 0.03 51 1018.8
20181211021902 56 56 1.0 1.0 0.00 0.00 0.03 51 1018.8
20181211021900 56 56 1.0 1.0 0.00 0.00 0.03 51 1018.8
20181211021854 56 56 1.0 1.0 0.00 0.00 0.03 51 1018.8
20181211021656 56 45 0.0 1.0 0.00 0.00 0.03 51 1018.8
20181211021620 56 45 0.0 1.0 0.00 0.00 0.03 51 1018.8
20181211021500 56 45 0.0 1.0 0.00 0.00 0.03 51 1018.8
20181211021453 56 45 0.0 1.0 0.00 0.00 0.03 51 1018.8
20181211021243 56 0 1.0 1.0 0.00 0.00 0.03 51 1018.9
20181211021159 56 0 1.0 1.0 0.00 0.00 0.03 51 1018.9
20181211021055 56 0 1.0 1.0 0.00 0.00 0.03 51 1018.9
20181211021052 56 0 1.0 1.0 0.00 0.00 0.03 51 1018.9
20181211020910 57 0 1.0 2.0 0.00 0.00 0.03 51 1018.9
20181211020655 57 0 1.0 2.0 0.00 0.00 0.03 51 1018.9
20181211020651 57 0 1.0 2.0 0.00 0.00 0.03 51 1018.9
20181211020249 57 45 0.0 2.0 0.00 0.00 0.03 50 1018.9
20181211020145 58 265 2.0 2.0 0.00 0.00 0.03 50 1019.0
20181211020034 58 265 2.0 2.0 0.00 0.00 0.03 50 1019.0
20181211020002 58 265 2.0 2.0 0.00 0.00 0.03 50 1019.0
20181211015856 58 265 2.0 2.0 0.00 0.00 0.03 50 1019.0
20181211015848 58 265 2.0 2.0 0.00 0.00 0.03 50 1019.0
20181211015655 58 135 0.0 0.0 0.00 0.00 0.03 50 1018.7
20181211015613 58 135 0.0 0.0 0.00 0.00 0.03 50 1018.7
20181211015449 58 135 0.0 0.0 0.00 0.00 0.03 50 1018.7
20181211015446 58 135 0.0 0.0 0.00 0.00 0.03 50 1018.7
20181211015244 58 135 0.0 1.0 0.00 0.00 0.03 49 1018.5
20181211015045 58 135 0.0 1.0 0.00 0.00 0.03 49 1018.5
20181211014917 58 315 0.0 0.0 0.00 0.00 0.03 49 1018.4
20181211014829 58 315 0.0 0.0 0.00 0.00 0.03 49 1018.4
20181211014755 58 315 0.0 0.0 0.00 0.00 0.03 49 1018.4
20181211014648 58 315 0.0 0.0 0.00 0.00 0.03 49 1018.4
20181211014644 58 315 0.0 0.0 0.00 0.00 0.03 49 1018.4
20181211014512 58 315 0.0 1.0 0.00 0.00 0.03 49 1018.3
20181211014404 58 315 0.0 1.0 0.00 0.00 0.03 49 1018.3
20181211014243 58 315 0.0 1.0 0.00 0.00 0.03 49 1018.3
20181211013842 58 0 0.0 0.0 0.00 0.00 0.03 49 1018.3
20181211013654 58 0 0.0 0.0 0.00 0.00 0.03 48 1018.1
20181211013614 58 0 0.0 0.0 0.00 0.00 0.03 48 1018.1
20181211013442 58 0 0.0 0.0 0.00 0.00 0.03 48 1018.1
20181211013440 58 0 0.0 0.0 0.00 0.00 0.03 48 1018.1
20181211013047 59 135 1.0 2.0 0.00 0.00 0.03 48 1018.0
20181211013045 61 225 0.0 3.0 0.00 0.00 0.03 47 1018.2
20181211013038 58 0 0.0 1.0 0.00 0.00 0.03 48 1018.2
20181211013010 60 90 1.0 1.0 0.00 0.00 0.03 47 1018.0
20181211012931 59 135 1.0 2.0 0.00 0.00 0.03 48 1018.0
20181211012929 61 128 3.0 3.0 0.00 0.00 0.03 47 1017.9
20181211012849 58 0 0.0 0.0 0.00 0.00 0.03 48 1018.1
20181211012847 61 225 0.0 3.0 0.00 0.00 0.03 47 1018.2
20181211012806 58 0 0.0 0.0 0.00 0.00 0.03 48 1018.1
20181211012800 60 90 1.0 1.0 0.00 0.00 0.03 47 1018.0
20181211012759 61 225 0.0 3.0 0.00 0.00 0.03 47 1018.2
20181211012711 59 90 3.0 3.0 0.00 0.00 0.03 47 1018.0
20181211012643 58 0 0.0 0.0 0.00 0.00 0.03 48 1018.1
20181211012641 58 0 0.0 0.0 0.00 0.00 0.03 48 1018.1
20181211012637 58 0 0.0 0.0 0.00 0.00 0.03 48 1018.1
20181211012621 59 90 3.0 3.0 0.00 0.00 0.03 47 1018.0
20181211012525 59 135 1.0 2.0 0.00 0.00 0.03 48 1018.0
20181211012426 59 90 3.0 3.0 0.00 0.00 0.03 47 1018.0
20181211012354 59 135 1.0 2.0 0.00 0.00 0.03 48 1018.0
20181211012321 60 90 1.0 1.0 0.00 0.00 0.03 47 1018.0
20181211012247 59 135 1.0 2.0 0.00 0.00 0.03 48 1018.0
20181211012245 61 128 3.0 3.0 0.00 0.00 0.03 47 1017.9
20181211012238 59 135 0.0 1.0 0.00 0.00 0.03 48 1018.1
20181211012236 59 135 0.0 1.0 0.00 0.00 0.03 48 1018.1
20181211012210 60 96 0.0 0.0 0.00 0.00 0.03 47 1018.0
20181211012133 60 96 0.0 0.0 0.00 0.00 0.03 47 1018.0
20181211012131 59 135 1.0 2.0 0.00 0.00 0.03 48 1018.0
20181211012056 59 135 1.0 2.0 0.00 0.00 0.03 48 1018.0
20181211012054 61 128 3.0 3.0 0.00 0.00 0.03 47 1017.9
20181211012024 59 135 1.0 2.0 0.00 0.00 0.03 48 1018.0
20181211012016 60 90 1.0 1.0 0.00 0.00 0.03 47 1018.0
20181211011937 59 90 3.0 3.0 0.00 0.00 0.03 47 1018.0
20181211011854 59 90 3.0 3.0 0.00 0.00 0.03 47 1018.0
20181211011839 59 135 1.0 2.0 0.00 0.00 0.03 48 1018.0
20181211011837 59 135 1.0 2.0 0.00 0.00 0.03 48 1018.0
20181211011835 59 135 1.0 2.0 0.00 0.00 0.03 48 1018.0
20181211011810 60 96 0.0 0.0 0.00 0.00 0.03 47 1018.0
20181211011724 61 225 0.0 3.0 0.00 0.00 0.03 47 1018.2
20181211011638 61 128 3.0 3.0 0.00 0.00 0.03 47 1017.9
20181211011617 59 90 3.0 3.0 0.00 0.00 0.03 47 1018.0
20181211011549 61 128 3.0 3.0 0.00 0.00 0.03 47 1017.9
20181211011458 61 128 3.0 3.0 0.00 0.00 0.03 47 1017.9
20181211011436 59 90 3.0 3.0 0.00 0.00 0.03 47 1018.0
20181211011434 59 90 3.0 3.0 0.00 0.00 0.03 47 1018.0
20181211011406 60 96 0.0 0.0 0.00 0.00 0.03 47 1018.0
20181211011311 61 225 0.0 3.0 0.00 0.00 0.03 47 1018.2
20181211011214 60 90 1.0 1.0 0.00 0.00 0.03 47 1018.0
20181211011115 60 96 0.0 0.0 0.00 0.00 0.03 47 1018.0
20181211011036 59 135 1.0 2.0 0.00 0.00 0.03 47 1018.0
20181211011013 60 90 1.0 1.0 0.00 0.00 0.03 47 1018.0
20181211010907 60 274 0.0 1.0 0.00 0.00 0.03 47 1018.1
20181211010838 60 90 1.0 1.0 0.00 0.00 0.03 47 1018.0
20181211010801 60 96 0.0 0.0 0.00 0.00 0.03 47 1018.0
20181211010651 60 96 0.0 0.0 0.00 0.00 0.03 47 1018.0
20181211010633 60 90 1.0 1.0 0.00 0.00 0.03 47 1018.0
20181211010630 60 90 1.0 1.0 0.00 0.00 0.03 47 1018.0
20181211010539 60 96 0.0 0.0 0.00 0.00 0.03 47 1018.0
20181211010425 61 128 3.0 3.0 0.00 0.00 0.03 47 1017.9
20181211010306 61 225 0.0 3.0 0.00 0.00 0.03 47 1018.2
20181211010239 60 96 0.0 0.0 0.00 0.00 0.03 47 1018.0
20181211010237 60 96 0.0 0.0 0.00 0.00 0.03 47 1018.0
20181211010229 60 96 0.0 0.0 0.00 0.00 0.03 47 1018.0
20181211010141 61 225 0.0 3.0 0.00 0.00 0.03 47 1018.2
20181211010100 60 274 0.0 1.0 0.00 0.00 0.03 47 1018.1
20181211010011 61 225 0.0 3.0 0.00 0.00 0.03 47 1018.2
20181211010000 60 274 0.0 1.0 0.00 0.00 0.03 47 1018.1
20181211005839 61 128 3.0 3.0 0.00 0.00 0.03 47 1017.9
20181211005831 60 274 0.0 1.0 0.00 0.00 0.03 47 1018.1
20181211005828 60 274 0.0 1.0 0.00 0.00 0.03 47 1018.1
20181211005700 61 128 3.0 3.0 0.00 0.00 0.03 47 1017.9
20181211005602 61 225 0.0 3.0 0.00 0.00 0.03 47 1018.2
20181211005521 61 128 3.0 3.0 0.00 0.00 0.03 47 1017.9
20181211005430 61 225 0.0 3.0 0.00 0.00 0.03 47 1018.2
20181211005427 61 225 0.0 3.0 0.00 0.00 0.03 47 1018.2
20181211005336 61 128 3.0 3.0 0.00 0.00 0.03 47 1017.9
20181211005136 61 128 3.0 3.0 0.00 0.00 0.03 47 1017.9
20181211005029 61 128 3.0 3.0 0.00 0.00 0.03 47 1017.9
20181211005026 61 128 3.0 3.0 0.00 0.00 0.03 47 1017.9
20181211004743 61 94 2.0 3.0 0.00 0.00 0.03 47 1018.0
20181211004630 61 94 2.0 3.0 0.00 0.00 0.03 47 1018.0
20181211004628 61 94 2.0 3.0 0.00 0.00 0.03 47 1018.0
20181211004624 61 94 2.0 3.0 0.00 0.00 0.03 47 1018.0
20181211004348 62 135 3.0 3.0 0.00 0.00 0.03 47 1017.9
20181211004230 62 135 3.0 3.0 0.00 0.00 0.03 47 1017.9
20181211004222 62 135 3.0 3.0 0.00 0.00 0.03 47 1017.9
20181211003907 62 141 0.0 0.0 0.00 0.00 0.02 48 1017.9
20181211003828 62 141 0.0 0.0 0.00 0.00 0.02 48 1017.9
20181211003824 62 141 0.0 0.0 0.00 0.00 0.02 48 1017.9
20181211003821 62 141 0.0 0.0 0.00 0.00 0.02 48 1017.9
20181211003630 62 85 0.0 0.0 0.00 0.00 0.02 48 1018.0
20181211003423 62 85 0.0 0.0 0.00 0.00 0.02 48 1018.0
20181211003420 62 85 0.0 0.0 0.00 0.00 0.02 48 1018.0
20181211003130 63 94 0.0 1.0 0.00 0.00 0.02 48 1018.0
20181211003026 63 94 0.0 1.0 0.00 0.00 0.02 48 1018.0
20181211003021 63 94 0.0 1.0 0.00 0.00 0.02 48 1018.0
20181211003019 63 94 0.0 1.0 0.00 0.00 0.02 48 1018.0
20181211002835 63 0 0.0 1.0 0.00 0.00 0.02 48 1018.1
20181211002744 64 337 0.0 2.0 0.00 0.00 0.02 47 1018.2
20181211002732 63 0 0.0 1.0 0.00 0.00 0.02 48 1018.1
20181211002624 63 0 0.0 1.0 0.00 0.00 0.02 48 1018.1
20181211002621 63 0 0.0 1.0 0.00 0.00 0.02 48 1018.1
20181211002618 63 0 0.0 1.0 0.00 0.00 0.02 48 1018.1
20181211002520 64 337 0.0 2.0 0.00 0.00 0.02 47 1018.2
20181211002219 64 337 0.0 2.0 0.00 0.00 0.02 47 1018.2
20181211002216 64 337 0.0 2.0 0.00 0.00 0.02 47 1018.2
20181211002032 64 135 2.0 2.0 0.00 0.00 0.02 47 1018.3
20181211001817 64 135 2.0 2.0 0.00 0.00 0.02 47 1018.3
20181211001815 64 135 2.0 2.0 0.00 0.00 0.02 47 1018.3
20181211001413 64 83 1.0 1.0 0.00 0.00 0.02 47 1018.3
20181211001341 65 0 0.0 1.0 0.00 0.00 0.02 48 1018.5
20181211001015 64 346 0.0 0.0 0.00 0.00 0.02 48 1018.4
20181211001012 64 346 0.0 0.0 0.00 0.00 0.02 48 1018.4
20181211000904 65 353 0.0 0.0 0.00 0.00 0.02 48 1018.4
20181211000611 65 353 0.0 0.0 0.00 0.00 0.02 48 1018.4
20181211000213 65 339 0.0 1.0 0.00 0.00 0.02 48 1018.5
20181211000210 65 339 0.0 1.0 0.00 0.00 0.02 48 1018.5
20181211000044 65 0 0.0 1.0 0.00 0.00 0.02 48 1018.5
20181210235911 65 0 0.0 1.0 0.00 0.00 0.02 48 1018.5
20181210235814 65 0 0.0 1.0 0.00 0.00 0.02 48 1018.5
20181210235808 65 0 0.0 1.0 0.00 0.00 0.02 48 1018.5
20181210235407 66 92 0.0 0.0 0.00 0.00 0.02 45 1018.4
20181210235241 66 85 0.0 1.0 0.00 0.00 0.01 46 1018.4
20181210235011 66 85 0.0 1.0 0.00 0.00 0.01 46 1018.4
20181210235006 66 85 0.0 1.0 0.00 0.00 0.01 46 1018.4
20181210234932 67 148 0.0 1.0 0.00 0.00 0.01 46 1018.5
20181210234720 67 148 0.0 1.0 0.00 0.00 0.01 46 1018.5
20181210234612 67 148 0.0 1.0 0.00 0.00 0.01 46 1018.5
20181210234609 67 148 0.0 1.0 0.00 0.00 0.01 46 1018.5
20181210234605 67 148 0.0 1.0 0.00 0.00 0.01 46 1018.5
20181210234203 67 180 0.0 1.0 0.00 0.00 0.01 46 1018.6
20181210234117 67 144 0.0 0.0 0.00 0.00 0.01 45 1018.5
20181210233930 67 144 0.0 0.0 0.00 0.00 0.01 45 1018.5
20181210233807 67 144 0.0 0.0 0.00 0.00 0.01 45 1018.5
20181210233802 67 144 0.0 0.0 0.00 0.00 0.01 45 1018.5
20181210233442 67 108 0.0 0.0 0.00 0.00 0.01 45 1018.5
20181210233400 67 108 0.0 0.0 0.00 0.00 0.01 45 1018.5
20181210233251 67 83 0.0 0.0 0.00 0.00 0.00 44 1018.4
20181210233046 67 83 0.0 0.0 0.00 0.00 0.00 44 1018.4
20181210233002 67 83 0.0 0.0 0.00 0.00 0.00 44 1018.4
20181210232959 67 83 0.0 0.0 0.00 0.00 0.00 44 1018.4
20181210232654 67 135 0.0 0.0 0.00 0.00 0.00 44 1018.5
20181210232611 67 135 0.0 0.0 0.00 0.00 0.00 44 1018.5
20181210232558 67 135 0.0 0.0 0.00 0.00 0.00 44 1018.5
20181210232455 67 180 0.0 0.0 0.00 0.00 0.00 44 1018.5
20181210232328 67 180 0.0 0.0 0.00 0.00 0.00 44 1018.5
20181210232211 67 344 1.0 1.0 0.00 0.00 0.00 44 1018.4
20181210232200 67 180 0.0 0.0 0.00 0.00 0.00 44 1018.5
20181210232156 67 180 0.0 0.0 0.00 0.00 0.00 44 1018.5
20181210231851 67 180 0.0 0.0 0.00 0.00 0.00 44 1018.5
20181210231819 67 180 0.0 0.0 0.00 0.00 0.00 44 1018.5
20181210231755 67 180 0.0 0.0 0.00 0.00 0.00 44 1018.5
20181210231507 67 310 0.0 1.0 0.00 0.00 0.00 44 1018.4
20181210231354 67 310 0.0 1.0 0.00 0.00 0.00 44 1018.4
20181210230658 67 184 0.0 1.0 0.00 0.00 0.00 44 1018.5
20181210230553 67 184 0.0 1.0 0.00 0.00 0.00 44 1018.5
20181210230551 67 184 0.0 1.0 0.00 0.00 0.00 44 1018.5
20181210230255 67 0 0.0 1.0 0.00 0.00 0.00 44 1018.5
20181210230154 67 0 0.0 1.0 0.00 0.00 0.00 44 1018.5
20181210230150 67 0 0.0 1.0 0.00 0.00 0.00 44 1018.5
20181210230112 67 344 1.0 1.0 0.00 0.00 0.00 44 1018.4
20181210225848 67 344 1.0 1.0 0.00 0.00 0.00 44 1018.4